Wetterdaten: Freitag, 31.05.2019
Datum Zeit Temp. Aussen Temp. o. S. +5cm Feuchte Auss Luftdruck Regen Sonnenschein Regendauer Solar Windben Empfang
31.05.2019 00:00 18,2 C 17,2 C 17,2 C 79 % 1024,5 hPa 0,0 l/m 0 min 0 min 0 W/m 6,4 km/h (2 Bft) 93,62 %
31.05.2019 00:02 18,2 C 17,2 C 16,7 C 79 % 1024,5 hPa 0,0 l/m 0 min 0 min 0 W/m 6,4 km/h (2 Bft) 95,56 %
31.05.2019 00:04 18,2 C 17,2 C 16,7 C 79 % 1024,5 hPa 0,0 l/m 0 min 0 min 0 W/m 6,4 km/h (2 Bft) 97,83 %
31.05.2019 00:10 18,2 C 17,2 C 16,7 C 79 % 1024,5 hPa 0,0 l/m 0 min 0 min 0 W/m 9,7 km/h (2 Bft) 95,45 %
31.05.2019 00:12 18,2 C 17,2 C 16,7 C 79 % 1024,5 hPa 0,0 l/m 0 min 0 min 0 W/m 3,2 km/h (1 Bft) 97,87 %
31.05.2019 00:14 18,2 C 17,2 C 16,7 C 79 % 1024,5 hPa 0,0 l/m 0 min 0 min 0 W/m 6,4 km/h (2 Bft) 97,87 %
31.05.2019 00:16 18,2 C 17,2 C 16,7 C 79 % 1024,5 hPa 0,0 l/m 0 min 0 min 0 W/m 12,9 km/h (3 Bft) 97,87 %
31.05.2019 00:18 18,2 C 17,2 C 16,7 C 79 % 1024,5 hPa 0,0 l/m 0 min 0 min 0 W/m 6,4 km/h (2 Bft) 95,65 %
31.05.2019 00:20 18,2 C 17,2 C 16,7 C 79 % 1024,5 hPa 0,0 l/m 0 min 0 min 0 W/m 6,4 km/h (2 Bft) 100,00 %
31.05.2019 00:22 18,2 C 17,2 C 16,7 C 79 % 1024,5 hPa 0,0 l/m 0 min 0 min 0 W/m 9,7 km/h (2 Bft) 100,00 %
31.05.2019 00:24 18,2 C 17,2 C 16,7 C 79 % 1024,5 hPa 0,0 l/m 0 min 0 min 0 W/m 16,1 km/h (3 Bft) 100,00 %
31.05.2019 00:26 18,2 C 17,2 C 16,7 C 79 % 1024,4 hPa 0,0 l/m 0 min 0 min 0 W/m 16,1 km/h (3 Bft) 100,00 %
31.05.2019 00:28 18,1 C 17,2 C 16,7 C 79 % 1024,4 hPa 0,0 l/m 0 min 0 min 0 W/m 9,7 km/h (2 Bft) 100,00 %
31.05.2019 00:30 18,2 C 17,2 C 16,7 C 79 % 1024,4 hPa 0,0 l/m 0 min 0 min 0 W/m 12,9 km/h (3 Bft) 97,83 %
31.05.2019 00:32 18,1 C 17,2 C 16,7 C 79 % 1024,4 hPa 0,0 l/m 0 min 0 min 0 W/m 6,4 km/h (2 Bft) 100,00 %
31.05.2019 00:34 18,1 C 17,2 C 16,7 C 79 % 1024,4 hPa 0,0 l/m 0 min 0 min 0 W/m 19,3 km/h (3 Bft) 100,00 %
31.05.2019 00:36 18,1 C 17,2 C 16,7 C 79 % 1024,4 hPa 0,0 l/m 0 min 0 min 0 W/m 12,9 km/h (3 Bft) 100,00 %
31.05.2019 00:38 18,1 C 17,2 C 16,7 C 79 % 1024,4 hPa 0,0 l/m 0 min 0 min 0 W/m 9,7 km/h (2 Bft) 100,00 %
31.05.2019 00:40 18,1 C 17,2 C 16,7 C 79 % 1024,4 hPa 0,0 l/m 0 min 0 min 0 W/m 6,4 km/h (2 Bft) 100,00 %
31.05.2019 00:42 18,1 C 17,2 C 16,7 C 79 % 1024,4 hPa 0,0 l/m 0 min 0 min 0 W/m 9,7 km/h (2 Bft) 100,00 %
31.05.2019 00:44 18,1 C 17,2 C 16,7 C 79 % 1024,4 hPa 0,0 l/m 0 min 0 min 0 W/m 9,7 km/h (2 Bft) 100,00 %
31.05.2019 00:46 18,1 C 17,2 C 16,7 C 79 % 1024,4 hPa 0,0 l/m 0 min 0 min 0 W/m 12,9 km/h (3 Bft) 97,87 %
31.05.2019 00:48 18,1 C 17,2 C 16,7 C 79 % 1024,4 hPa 0,0 l/m 0 min 0 min 0 W/m 9,7 km/h (2 Bft) 100,00 %
31.05.2019 00:50 18,1 C 17,2 C 16,7 C 79 % 1024,4 hPa 0,0 l/m 0 min 0 min 0 W/m 9,7 km/h (2 Bft) 100,00 %
31.05.2019 00:52 18,1 C 17,2 C 16,7 C 79 % 1024,4 hPa 0,0 l/m 0 min 0 min 0 W/m 9,7 km/h (2 Bft) 100,00 %
31.05.2019 00:54 18,1 C 17,2 C 16,7 C 79 % 1024,4 hPa 0,0 l/m 0 min 0 min 0 W/m 6,4 km/h (2 Bft) 100,00 %
31.05.2019 00:56 18,1 C 17,2 C 16,7 C 80 % 1024,5 hPa 0,0 l/m 0 min 0 min 0 W/m 9,7 km/h (2 Bft) 100,00 %
31.05.2019 00:58 18,1 C 17,2 C 16,7 C 80 % 1024,6 hPa 0,0 l/m 0 min 0 min 0 W/m 6,4 km/h (2 Bft) 100,00 %
31.05.2019 01:00 18,1 C 17,2 C 16,7 C 80 % 1024,5 hPa 0,0 l/m 0 min 0 min 0 W/m 6,4 km/h (2 Bft) 100,00 %
31.05.2019 01:02 18,0 C 17,2 C 16,7 C 80 % 1024,5 hPa 0,0 l/m 0 min 0 min 0 W/m 6,4 km/h (2 Bft) 100,00 %
31.05.2019 01:04 18,1 C 17,2 C 16,7 C 80 % 1024,5 hPa 0,0 l/m 0 min 0 min 0 W/m 9,7 km/h (2 Bft) 100,00 %
31.05.2019 01:06 18,0 C 17,2 C 16,7 C 80 % 1024,4 hPa 0,0 l/m 0 min 0 min 0 W/m 3,2 km/h (1 Bft) 100,00 %
31.05.2019 01:08 18,0 C 17,2 C 16,7 C 80 % 1024,4 hPa 0,0 l/m 0 min 0 min 0 W/m 9,7 km/h (2 Bft) 100,00 %
31.05.2019 01:10 18,0 C 17,2 C 16,7 C 80 % 1024,5 hPa 0,0 l/m 0 min 0 min 0 W/m 12,9 km/h (3 Bft) 97,87 %
31.05.2019 01:12 18,0 C 17,2 C 16,7 C 80 % 1024,4 hPa 0,0 l/m 0 min 0 min 0 W/m 16,1 km/h (3 Bft) 97,87 %
31.05.2019 01:14 18,0 C 17,2 C 16,7 C 80 % 1024,5 hPa 0,0 l/m 0 min 0 min 0 W/m 16,1 km/h (3 Bft) 100,00 %
31.05.2019 01:16 17,9 C 17,2 C 16,7 C 80 % 1024,5 hPa 0,0 l/m 0 min 0 min 0 W/m 9,7 km/h (2 Bft) 100,00 %
31.05.2019 01:18 17,9 C 17,2 C 16,7 C 80 % 1024,4 hPa 0,0 l/m 0 min 0 min 0 W/m 12,9 km/h (3 Bft) 100,00 %
31.05.2019 01:20 17,9 C 16,7 C 16,7 C 80 % 1024,5 hPa 0,0 l/m 0 min 0 min 0 W/m 12,9 km/h (3 Bft) 100,00 %
31.05.2019 01:22 17,9 C 16,7 C 16,7 C 80 % 1024,4 hPa 0,0 l/m 0 min 0 min 0 W/m 16,1 km/h (3 Bft) 97,87 %
31.05.2019 01:24 17,9 C 16,7 C 16,7 C 80 % 1024,4 hPa 0,0 l/m 0 min 0 min 0 W/m 9,7 km/h (2 Bft) 97,87 %
31.05.2019 01:26 17,9 C 16,7 C 16,7 C 80 % 1024,6 hPa 0,0 l/m 0 min 0 min 0 W/m 9,7 km/h (2 Bft) 93,62 %
31.05.2019 01:28 17,9 C 16,7 C 16,7 C 80 % 1024,4 hPa 0,0 l/m 0 min 0 min 0 W/m 6,4 km/h (2 Bft) 97,83 %
31.05.2019 01:30 17,9 C 16,7 C 16,7 C 80 % 1024,4 hPa 0,0 l/m 0 min 0 min 0 W/m 6,4 km/h (2 Bft) 97,87 %
31.05.2019 01:32 17,8 C 16,7 C 16,7 C 80 % 1024,4 hPa 0,0 l/m 0 min 0 min 0 W/m 6,4 km/h (2 Bft) 97,87 %
31.05.2019 01:34 17,8 C 16,7 C 16,7 C 80 % 1024,4 hPa 0,0 l/m 0 min 0 min 0 W/m 6,4 km/h (2 Bft) 95,74 %
31.05.2019 01:36 17,8 C 16,7 C 16,7 C 80 % 1024,4 hPa 0,0 l/m 0 min 0 min 0 W/m 3,2 km/h (1 Bft) 98,28 %
31.05.2019 01:38 17,8 C 16,7 C 16,1 C 80 % 1024,4 hPa 0,0 l/m 0 min 0 min 0 W/m 6,4 km/h (2 Bft) 97,87 %
31.05.2019 01:40 17,8 C 16,7 C 16,1 C 80 % 1024,4 hPa 0,0 l/m 0 min 0 min 0 W/m 6,4 km/h (2 Bft) 97,14 %
31.05.2019 01:42 17,8 C 16,7 C 16,1 C 80 % 1024,4 hPa 0,0 l/m 0 min 0 min 0 W/m 9,7 km/h (2 Bft) 97,87 %
31.05.2019 01:44 17,7 C 16,7 C 16,1 C 80 % 1024,4 hPa 0,0 l/m 0 min 0 min 0 W/m 6,4 km/h (2 Bft) 95,74 %
31.05.2019 01:46 17,7 C 16,7 C 16,1 C 80 % 1024,3 hPa 0,0 l/m 0 min 0 min 0 W/m 9,7 km/h (2 Bft) 97,87 %
31.05.2019 01:48 17,7 C 16,7 C 16,1 C 80 % 1024,4 hPa 0,0 l/m 0 min 0 min 0 W/m 6,4 km/h (2 Bft) 95,74 %
31.05.2019 01:50 17,7 C 16,7 C 16,1 C 80 % 1024,4 hPa 0,0 l/m 0 min 0 min 0 W/m 6,4 km/h (2 Bft) 97,87 %
31.05.2019 01:52 17,7 C 16,7 C 16,1 C 81 % 1024,3 hPa 0,0 l/m 0 min 0 min 0 W/m 9,7 km/h (2 Bft) 97,83 %
31.05.2019 01:54 17,6 C 16,7 C 16,1 C 81 % 1024,3 hPa 0,0 l/m 0 min 0 min 0 W/m 6,4 km/h (2 Bft) 97,87 %
31.05.2019 01:56 17,6 C 16,7 C 16,1 C 81 % 1024,3 hPa 0,0 l/m 0 min 0 min 0 W/m 9,7 km/h (2 Bft) 95,74 %
31.05.2019 01:58 17,6 C 16,7 C 16,1 C 81 % 1024,3 hPa 0,0 l/m 0 min 0 min 0 W/m 6,4 km/h (2 Bft) 95,74 %
31.05.2019 02:00 17,6 C 16,7 C 16,1 C 81 % 1024,3 hPa 0,0 l/m 0 min 0 min 0 W/m 12,9 km/h (3 Bft) 95,74 %
31.05.2019 02:02 17,6 C 16,7 C 16,1 C 81 % 1024,3 hPa 0,0 l/m 0 min 0 min 0 W/m 9,7 km/h (2 Bft) 95,74 %
31.05.2019 02:04 17,6 C 16,7 C 16,1 C 81 % 1024,3 hPa 0,0 l/m 0 min 0 min 0 W/m 9,7 km/h (2 Bft) 95,65 %
31.05.2019 02:06 17,5 C 16,7 C 16,1 C 81 % 1024,3 hPa 0,0 l/m 0 min 0 min 0 W/m 12,9 km/h (3 Bft) 93,22 %
31.05.2019 02:08 17,5 C 16,7 C 16,1 C 81 % 1024,3 hPa 0,0 l/m 0 min 0 min 0 W/m 12,9 km/h (3 Bft) 94,29 %
31.05.2019 02:10 17,5 C 16,7 C 16,1 C 81 % 1024,2 hPa 0,0 l/m 0 min 0 min 0 W/m 3,2 km/h (1 Bft) 95,74 %
31.05.2019 02:12 17,5 C 16,7 C 16,1 C 81 % 1024,2 hPa 0,0 l/m 0 min 0 min 0 W/m 12,9 km/h (3 Bft) 93,62 %
31.05.2019 02:14 17,4 C 16,7 C 16,1 C 81 % 1024,1 hPa 0,0 l/m 0 min 0 min 0 W/m 9,7 km/h (2 Bft) 95,65 %
31.05.2019 02:16 17,4 C 16,7 C 16,1 C 81 % 1024,1 hPa 0,0 l/m 0 min 0 min 0 W/m 9,7 km/h (2 Bft) 95,74 %
31.05.2019 02:18 17,4 C 16,7 C 16,1 C 81 % 1024,1 hPa 0,0 l/m 0 min 0 min 0 W/m 6,4 km/h (2 Bft) 95,74 %
31.05.2019 02:20 17,4 C 16,7 C 16,1 C 81 % 1024,1 hPa 0,0 l/m 0 min 0 min 0 W/m 9,7 km/h (2 Bft) 97,87 %
31.05.2019 02:22 17,4 C 16,7 C 16,1 C 81 % 1024,0 hPa 0,0 l/m 0 min 0 min 0 W/m 12,9 km/h (3 Bft) 91,49 %
31.05.2019 02:24 17,4 C 16,7 C 16,1 C 81 % 1024,1 hPa 0,0 l/m 0 min 0 min 0 W/m 12,9 km/h (3 Bft) 93,62 %
31.05.2019 02:26 17,4 C 16,7 C 16,1 C 81 % 1024,1 hPa 0,0 l/m 0 min 0 min 0 W/m 6,4 km/h (2 Bft) 95,65 %
31.05.2019 02:28 17,4 C 16,7 C 16,1 C 81 % 1024,0 hPa 0,0 l/m 0 min 0 min 0 W/m 6,4 km/h (2 Bft) 97,87 %
31.05.2019 02:30 17,4 C 16,1 C 16,1 C 81 % 1024,0 hPa 0,0 l/m 0 min 0 min 0 W/m 6,4 km/h (2 Bft) 97,87 %
31.05.2019 02:32 17,4 C 16,1 C 16,1 C 81 % 1024,1 hPa 0,0 l/m 0 min 0 min 0 W/m 3,2 km/h (1 Bft) 95,74 %
31.05.2019 02:34 17,3 C 16,1 C 16,1 C 81 % 1024,0 hPa 0,0 l/m 0 min 0 min 0 W/m 6,4 km/h (2 Bft) 93,62 %
31.05.2019 02:36 17,3 C 16,1 C 16,1 C 81 % 1023,9 hPa 0,0 l/m 0 min 0 min 0 W/m 6,4 km/h (2 Bft) 94,83 %
31.05.2019 02:38 17,3 C 16,1 C 16,1 C 81 % 1023,9 hPa 0,0 l/m 0 min 0 min 0 W/m 6,4 km/h (2 Bft) 97,14 %
31.05.2019 02:40 17,3 C 16,1 C 16,1 C 81 % 1023,9 hPa 0,0 l/m 0 min 0 min 0 W/m 9,7 km/h (2 Bft) 95,83 %
31.05.2019 02:42 17,3 C 16,1 C 16,1 C 81 % 1024,0 hPa 0,0 l/m 0 min 0 min 0 W/m 3,2 km/h (1 Bft) 95,74 %
31.05.2019 02:44 17,3 C 16,1 C 16,1 C 81 % 1024,0 hPa 0,0 l/m 0 min 0 min 0 W/m 9,7 km/h (2 Bft) 95,74 %
31.05.2019 02:46 17,3 C 16,1 C 16,1 C 81 % 1024,0 hPa 0,0 l/m 0 min 0 min 0 W/m 16,1 km/h (3 Bft) 97,87 %
31.05.2019 02:48 17,3 C 16,1 C 16,1 C 81 % 1024,0 hPa 0,0 l/m 0 min 0 min 0 W/m 9,7 km/h (2 Bft) 95,74 %
31.05.2019 02:50 17,2 C 16,1 C 16,1 C 81 % 1023,9 hPa 0,0 l/m 0 min 0 min 0 W/m 9,7 km/h (2 Bft) 97,83 %
31.05.2019 02:52 17,2 C 16,1 C 16,1 C 81 % 1023,9 hPa 0,0 l/m 0 min 0 min 0 W/m 6,4 km/h (2 Bft) 97,87 %
31.05.2019 02:54 17,2 C 16,1 C 15,6 C 81 % 1024,0 hPa 0,0 l/m 0 min 0 min 0 W/m 6,4 km/h (2 Bft) 97,87 %
31.05.2019 02:56 17,2 C 16,1 C 15,6 C 81 % 1024,0 hPa 0,0 l/m 0 min 0 min 0 W/m 6,4 km/h (2 Bft) 97,87 %
31.05.2019 02:58 17,2 C 16,1 C 15,6 C 81 % 1024,0 hPa 0,0 l/m 0 min 0 min 0 W/m 6,4 km/h (2 Bft) 97,87 %
31.05.2019 03:00 17,1 C 16,1 C 15,6 C 81 % 1024,0 hPa 0,0 l/m 0 min 0 min 0 W/m 6,4 km/h (2 Bft) 97,87 %
31.05.2019 03:02 17,1 C 16,1 C 15,6 C 81 % 1023,9 hPa 0,0 l/m 0 min 0 min 0 W/m 6,4 km/h (2 Bft) 97,83 %
31.05.2019 03:04 17,1 C 16,1 C 15,6 C 81 % 1023,9 hPa 0,0 l/m 0 min 0 min 0 W/m 6,4 km/h (2 Bft) 97,87 %
31.05.2019 03:06 17,1 C 16,1 C 15,6 C 81 % 1023,9 hPa 0,0 l/m 0 min 0 min 0 W/m 9,7 km/h (2 Bft) 97,92 %
31.05.2019 03:08 17,1 C 16,1 C 15,6 C 81 % 1023,9 hPa 0,0 l/m 0 min 0 min 0 W/m 9,7 km/h (2 Bft) 97,78 %
31.05.2019 03:10 17,1 C 16,1 C 15,6 C 81 % 1023,9 hPa 0,0 l/m 0 min 0 min 0 W/m 6,4 km/h (2 Bft) 97,87 %
31.05.2019 03:12 17,1 C 16,1 C 15,6 C 81 % 1023,9 hPa 0,0 l/m 0 min 0 min 0 W/m 9,7 km/h (2 Bft) 93,62 %
31.05.2019 03:14 17,1 C 16,1 C 15,6 C 81 % 1023,9 hPa 0,0 l/m 0 min 0 min 0 W/m 12,9 km/h (3 Bft) 97,83 %
31.05.2019 03:16 17,0 C 16,1 C 15,6 C 81 % 1023,9 hPa 0,0 l/m 0 min 0 min 0 W/m 9,7 km/h (2 Bft) 97,87 %
31.05.2019 03:18 17,0 C 16,1 C 15,6 C 81 % 1023,9 hPa 0,0 l/m 0 min 0 min 0 W/m 9,7 km/h (2 Bft) 97,87 %
31.05.2019 03:20 17,0 C 16,1 C 15,6 C 81 % 1023,9 hPa 0,0 l/m 0 min 0 min 0 W/m 9,7 km/h (2 Bft) 97,87 %
31.05.2019 03:22 17,0 C 16,1 C 15,6 C 81 % 1023,9 hPa 0,0 l/m 0 min 0 min 0 W/m 9,7 km/h (2 Bft) 97,87 %
31.05.2019 03:24 16,9 C 16,1 C 15,6 C 81 % 1023,8 hPa 0,0 l/m 0 min 0 min 0 W/m 6,4 km/h (2 Bft) 100,00 %
31.05.2019 03:26 16,9 C 16,1 C 15,6 C 81 % 1023,8 hPa 0,0 l/m 0 min 0 min 0 W/m 9,7 km/h (2 Bft) 100,00 %
31.05.2019 03:28 16,9 C 16,1 C 15,6 C 81 % 1023,9 hPa 0,0 l/m 0 min 0 min 0 W/m 9,7 km/h (2 Bft) 100,00 %
31.05.2019 03:30 16,9 C 16,1 C 15,6 C 81 % 1023,9 hPa 0,0 l/m 0 min 0 min 0 W/m 9,7 km/h (2 Bft) 100,00 %
31.05.2019 03:32 16,9 C 16,1 C 15,6 C 81 % 1023,9 hPa 0,0 l/m 0 min 0 min 0 W/m 12,9 km/h (3 Bft) 100,00 %
31.05.2019 03:34 16,9 C 16,1 C 15,6 C 81 % 1023,8 hPa 0,0 l/m 0 min 0 min 0 W/m 6,4 km/h (2 Bft) 100,00 %
31.05.2019 03:36 16,9 C 16,1 C 15,6 C 81 % 1023,8 hPa 0,0 l/m 0 min 0 min 0 W/m 9,7 km/h (2 Bft) 98,28 %
31.05.2019 03:38 16,9 C 16,1 C 15,6 C 81 % 1023,9 hPa 0,0 l/m 0 min 0 min 0 W/m 9,7 km/h (2 Bft) 100,00 %
31.05.2019 03:40 16,9 C 16,1 C 15,6 C 81 % 1023,9 hPa 0,0 l/m 0 min 0 min 0 W/m 6,4 km/h (2 Bft) 100,00 %
31.05.2019 03:42 16,9 C 16,1 C 15,6 C 81 % 1023,8 hPa 0,0 l/m 0 min 0 min 0 W/m 6,4 km/h (2 Bft) 100,00 %
31.05.2019 03:44 16,9 C 16,1 C 15,6 C 81 % 1023,9 hPa 0,0 l/m 0 min 0 min 0 W/m 6,4 km/h (2 Bft) 100,00 %
31.05.2019 03:46 16,9 C 16,1 C 15,6 C 81 % 1023,9 hPa 0,0 l/m 0 min 0 min 0 W/m 6,4 km/h (2 Bft) 100,00 %
31.05.2019 03:48 16,9 C 16,1 C 15,6 C 81 % 1023,9 hPa 0,0 l/m 0 min 0 min 0 W/m 6,4 km/h (2 Bft) 100,00 %
31.05.2019 03:50 16,9 C 16,1 C 15,6 C 81 % 1023,9 hPa 0,0 l/m 0 min 0 min 0 W/m 9,7 km/h (2 Bft) 100,00 %
31.05.2019 03:52 16,9 C 16,1 C 15,6 C 81 % 1023,9 hPa 0,0 l/m 0 min 0 min 0 W/m 12,9 km/h (3 Bft) 100,00 %
31.05.2019 03:54 16,9 C 16,1 C 15,6 C 81 % 1024,0 hPa 0,0 l/m 0 min 0 min 0 W/m 9,7 km/h (2 Bft) 97,87 %
31.05.2019 03:56 16,9 C 16,1 C 15,6 C 81 % 1024,0 hPa 0,0 l/m 0 min 0 min 0 W/m 6,4 km/h (2 Bft) 97,87 %
31.05.2019 03:58 16,8 C 16,1 C 15,6 C 81 % 1023,9 hPa 0,0 l/m 0 min 0 min 0 W/m 6,4 km/h (2 Bft) 97,87 %
31.05.2019 04:00 16,9 C 16,1 C 15,6 C 82 % 1023,8 hPa 0,0 l/m 0 min 0 min 0 W/m 12,9 km/h (3 Bft) 100,00 %
31.05.2019 04:02 16,8 C 16,1 C 15,6 C 82 % 1023,9 hPa 0,0 l/m 0 min 0 min 0 W/m 9,7 km/h (2 Bft) 100,00 %
31.05.2019 04:04 16,8 C 16,1 C 15,6 C 82 % 1023,9 hPa 0,0 l/m 0 min 0 min 0 W/m 9,7 km/h (2 Bft) 97,87 %
31.05.2019 04:06 16,8 C 16,1 C 15,6 C 82 % 1024,1 hPa 0,0 l/m 0 min 0 min 0 W/m 9,7 km/h (2 Bft) 100,00 %
31.05.2019 04:08 16,8 C 16,1 C 15,6 C 82 % 1024,0 hPa 0,0 l/m 0 min 0 min 0 W/m 9,7 km/h (2 Bft) 100,00 %
31.05.2019 04:10 16,8 C 16,1 C 15,6 C 82 % 1024,0 hPa 0,0 l/m 0 min 0 min 0 W/m 6,4 km/h (2 Bft) 100,00 %
31.05.2019 04:12 16,8 C 16,1 C 15,6 C 82 % 1024,0 hPa 0,0 l/m 0 min 0 min 0 W/m 9,7 km/h (2 Bft) 97,83 %
31.05.2019 04:14 16,8 C 16,1 C 15,6 C 82 % 1024,0 hPa 0,0 l/m 0 min 0 min 0 W/m 12,9 km/h (3 Bft) 100,00 %
31.05.2019 04:16 16,8 C 16,1 C 15,6 C 82 % 1024,0 hPa 0,0 l/m 0 min 0 min 0 W/m 16,1 km/h (3 Bft) 100,00 %
31.05.2019 04:18 16,8 C 16,1 C 15,6 C 82 % 1024,0 hPa 0,0 l/m 0 min 0 min 0 W/m 12,9 km/h (3 Bft) 100,00 %
31.05.2019 04:20 16,8 C 16,1 C 15,6 C 82 % 1023,9 hPa 0,0 l/m 0 min 0 min 0 W/m 12,9 km/h (3 Bft) 100,00 %
31.05.2019 04:22 16,8 C 16,1 C 15,6 C 82 % 1024,0 hPa 0,0 l/m 0 min 0 min 0 W/m 9,7 km/h (2 Bft) 100,00 %
31.05.2019 04:24 16,8 C 16,1 C 15,6 C 82 % 1023,9 hPa 0,0 l/m 0 min 0 min 0 W/m 9,7 km/h (2 Bft) 100,00 %
31.05.2019 04:26 16,8 C 16,1 C 15,6 C 82 % 1023,9 hPa 0,0 l/m 0 min 0 min 0 W/m 9,7 km/h (2 Bft) 100,00 %
31.05.2019 04:28 16,8 C 16,1 C 15,6 C 82 % 1024,0 hPa 0,0 l/m 0 min 0 min 0 W/m 6,4 km/h (2 Bft) 100,00 %
31.05.2019 04:30 16,8 C 16,1 C 15,6 C 82 % 1023,9 hPa 0,0 l/m 0 min 0 min 0 W/m 12,9 km/h (3 Bft) 100,00 %
31.05.2019 04:32 16,8 C 16,1 C 15,6 C 82 % 1023,9 hPa 0,0 l/m 0 min 0 min 0 W/m 6,4 km/h (2 Bft) 100,00 %
31.05.2019 04:34 16,8 C 16,1 C 15,6 C 82 % 1023,9 hPa 0,0 l/m 0 min 0 min 0 W/m 9,7 km/h (2 Bft) 100,00 %
31.05.2019 04:36 16,8 C 16,1 C 15,6 C 82 % 1023,8 hPa 0,0 l/m 0 min 0 min 0 W/m 9,7 km/h (2 Bft) 97,83 %
31.05.2019 04:38 16,8 C 16,1 C 15,6 C 82 % 1023,9 hPa 0,0 l/m 0 min 0 min 0 W/m 9,7 km/h (2 Bft) 97,87 %
31.05.2019 04:40 16,7 C 16,1 C 15,6 C 82 % 1023,9 hPa 0,0 l/m 0 min 0 min 0 W/m 9,7 km/h (2 Bft) 97,87 %
31.05.2019 04:42 16,7 C 15,6 C 15,6 C 82 % 1023,8 hPa 0,0 l/m 0 min 0 min 0 W/m 6,4 km/h (2 Bft) 97,87 %
31.05.2019 04:44 16,7 C 15,6 C 15,6 C 82 % 1023,8 hPa 0,0 l/m 0 min 0 min 0 W/m 12,9 km/h (3 Bft) 95,74 %
31.05.2019 04:46 16,7 C 15,6 C 15,6 C 82 % 1023,9 hPa 0,0 l/m 0 min 0 min 0 W/m 9,7 km/h (2 Bft) 93,48 %
31.05.2019 04:48 16,7 C 15,6 C 15,6 C 82 % 1023,9 hPa 0,0 l/m 0 min 0 min 0 W/m 9,7 km/h (2 Bft) 95,74 %
31.05.2019 04:50 16,7 C 15,6 C 15,6 C 82 % 1023,9 hPa 0,0 l/m 0 min 0 min 0 W/m 9,7 km/h (2 Bft) 95,74 %
31.05.2019 04:52 16,7 C 15,6 C 15,6 C 82 % 1023,8 hPa 0,0 l/m 0 min 0 min 0 W/m 9,7 km/h (2 Bft) 93,62 %
31.05.2019 04:54 16,7 C 15,6 C 15,6 C 82 % 1023,8 hPa 0,0 l/m 0 min 0 min 0 W/m 9,7 km/h (2 Bft) 95,74 %
31.05.2019 04:56 16,7 C 15,6 C 15,6 C 82 % 1023,8 hPa 0,0 l/m 0 min 0 min 0 W/m 9,7 km/h (2 Bft) 95,74 %
31.05.2019 04:58 16,7 C 15,6 C 15,6 C 82 % 1023,8 hPa 0,0 l/m 0 min 0 min 0 W/m 12,9 km/h (3 Bft) 91,30 %
31.05.2019 05:00 16,7 C 15,6 C 15,6 C 82 % 1023,8 hPa 0,0 l/m 0 min 0 min 0 W/m 6,4 km/h (2 Bft) 93,62 %
31.05.2019 05:02 16,7 C 15,6 C 15,6 C 82 % 1023,9 hPa 0,0 l/m 0 min 0 min 0 W/m 6,4 km/h (2 Bft) 93,62 %
31.05.2019 05:04 16,7 C 15,6 C 15,6 C 82 % 1023,9 hPa 0,0 l/m 0 min 0 min 0 W/m 6,4 km/h (2 Bft) 95,74 %
31.05.2019 05:05 16,6 C 15,6 C 15,6 C 82 % 1023,9 hPa 0,0 l/m 0 min 0 min 0 W/m 6,4 km/h (2 Bft) 97,37 %
31.05.2019 05:10 16,6 C 15,6 C 15,6 C 82 % 1023,9 hPa 0,0 l/m 0 min 0 min 0 W/m 12,9 km/h (3 Bft) 99,12 %
31.05.2019 05:12 16,6 C 15,6 C 15,6 C 82 % 1023,9 hPa 0,0 l/m 0 min 0 min 0 W/m 9,7 km/h (2 Bft) 100,00 %
31.05.2019 05:17 16,6 C 15,6 C 15,6 C 82 % 1024,0 hPa 0,0 l/m 0 min 0 min 0 W/m 12,9 km/h (3 Bft) 97,44 %
31.05.2019 05:18 16,6 C 15,6 C 15,6 C 82 % 1024,0 hPa 0,0 l/m 0 min 0 min 0 W/m 6,4 km/h (2 Bft) 95,83 %
31.05.2019 05:20 16,6 C 15,6 C 15,6 C 82 % 1024,1 hPa 0,0 l/m 0 min 0 min 0 W/m 9,7 km/h (2 Bft) 95,83 %
31.05.2019 05:22 16,5 C 15,6 C 15,0 C 82 % 1024,1 hPa 0,0 l/m 0 min 0 min 0 W/m 12,9 km/h (3 Bft) 100,00 %
31.05.2019 05:24 16,5 C 15,6 C 15,6 C 82 % 1024,1 hPa 0,0 l/m 0 min 0 min 0 W/m 9,7 km/h (2 Bft) 93,62 %
31.05.2019 05:26 16,5 C 15,6 C 15,0 C 82 % 1024,0 hPa 0,0 l/m 0 min 0 min 0 W/m 9,7 km/h (2 Bft) 97,56 %
31.05.2019 05:28 16,5 C 15,6 C 15,0 C 82 % 1024,1 hPa 0,0 l/m 0 min 0 min 0 W/m 16,1 km/h (3 Bft) 95,74 %
31.05.2019 05:30 16,5 C 15,6 C 15,0 C 82 % 1024,0 hPa 0,0 l/m 0 min 0 min 0 W/m 9,7 km/h (2 Bft) 93,88 %
31.05.2019 05:35 16,4 C 15,6 C 15,0 C 82 % 1024,0 hPa 0,0 l/m 0 min 0 min 0 W/m 9,7 km/h (2 Bft) 100,00 %
31.05.2019 05:40 16,4 C 15,6 C 15,0 C 82 % 1024,0 hPa 0,0 l/m 0 min 0 min 0 W/m 9,7 km/h (2 Bft) 96,49 %
31.05.2019 05:45 16,4 C 15,6 C 15,0 C 82 % 1024,0 hPa 0,0 l/m 0 min 0 min 1 W/m 9,7 km/h (2 Bft) 98,25 %
31.05.2019 05:50 16,4 C 15,6 C 15,0 C 82 % 1024,1 hPa 0,0 l/m 0 min 0 min 5 W/m 9,7 km/h (2 Bft) 100,00 %
31.05.2019 05:55 16,4 C 15,6 C 15,0 C 82 % 1024,2 hPa 0,0 l/m 0 min 0 min 6 W/m 12,9 km/h (3 Bft) 99,12 %
31.05.2019 06:00 16,3 C 15,6 C 15,0 C 82 % 1024,3 hPa 0,0 l/m 0 min 0 min 7 W/m 6,4 km/h (2 Bft) 99,12 %
31.05.2019 06:05 16,3 C 15,6 C 15,0 C 82 % 1024,4 hPa 0,0 l/m 0 min 0 min 8 W/m 9,7 km/h (2 Bft) 100,00 %
31.05.2019 06:10 16,3 C 15,6 C 15,0 C 83 % 1024,3 hPa 0,0 l/m 0 min 0 min 11 W/m 6,4 km/h (2 Bft) 100,00 %
31.05.2019 06:15 16,3 C 15,6 C 15,0 C 83 % 1024,4 hPa 0,0 l/m 0 min 0 min 13 W/m 12,9 km/h (3 Bft) 100,00 %
31.05.2019 06:20 16,3 C 15,6 C 15,0 C 83 % 1024,4 hPa 0,0 l/m 0 min 0 min 18 W/m 12,9 km/h (3 Bft) 100,00 %
31.05.2019 06:25 16,3 C 15,6 C 15,0 C 83 % 1024,4 hPa 0,0 l/m 0 min 0 min 22 W/m 9,7 km/h (2 Bft) 99,12 %
31.05.2019 06:30 16,2 C 15,6 C 15,0 C 82 % 1024,4 hPa 0,0 l/m 0 min 0 min 26 W/m 12,9 km/h (3 Bft) 100,00 %
31.05.2019 06:35 16,2 C 15,6 C 15,0 C 82 % 1024,5 hPa 0,0 l/m 0 min 0 min 27 W/m 22,5 km/h (4 Bft) 100,00 %
31.05.2019 06:40 16,2 C 15,6 C 15,0 C 83 % 1024,4 hPa 0,0 l/m 0 min 0 min 30 W/m 22,5 km/h (4 Bft) 100,00 %
31.05.2019 06:45 16,2 C 15,6 C 15,0 C 83 % 1024,5 hPa 0,0 l/m 0 min 0 min 33 W/m 16,1 km/h (3 Bft) 100,00 %
31.05.2019 06:50 16,2 C 15,6 C 15,0 C 82 % 1024,6 hPa 0,0 l/m 0 min 0 min 36 W/m 19,3 km/h (3 Bft) 100,00 %
31.05.2019 06:55 16,2 C 15,6 C 15,0 C 82 % 1024,5 hPa 0,0 l/m 0 min 0 min 43 W/m 12,9 km/h (3 Bft) 100,00 %
31.05.2019 07:00 16,2 C 15,6 C 15,6 C 82 % 1024,6 hPa 0,0 l/m 0 min 0 min 49 W/m 12,9 km/h (3 Bft) 100,00 %
31.05.2019 07:05 16,2 C 15,6 C 15,6 C 82 % 1024,6 hPa 0,0 l/m 0 min 0 min 58 W/m 12,9 km/h (3 Bft) 100,00 %
31.05.2019 07:10 16,2 C 16,1 C 15,6 C 82 % 1024,5 hPa 0,0 l/m 0 min 0 min 63 W/m 12,9 km/h (3 Bft) 100,00 %
31.05.2019 07:15 16,2 C 16,1 C 15,6 C 82 % 1024,6 hPa 0,0 l/m 0 min 0 min 69 W/m 12,9 km/h (3 Bft) 100,00 %
31.05.2019 07:20 16,3 C 16,1 C 15,6 C 82 % 1024,6 hPa 0,0 l/m 0 min 0 min 76 W/m 9,7 km/h (2 Bft) 100,00 %
31.05.2019 07:32 16,3 C 16,1 C 15,6 C 81 % 1024,7 hPa 0,0 l/m 0 min 0 min 76 W/m 12,9 km/h (3 Bft) 100,00 %
31.05.2019 07:34 16,3 C 16,1 C 15,6 C 81 % 1024,7 hPa 0,0 l/m 0 min 0 min 81 W/m 16,1 km/h (3 Bft) 91,49 %
31.05.2019 07:35 16,3 C 16,1 C 15,6 C 81 % 1024,7 hPa 0,0 l/m 0 min 0 min 81 W/m 16,1 km/h (3 Bft) 95,61 %
31.05.2019 07:40 16,3 C 16,1 C 15,6 C 81 % 1024,8 hPa 0,0 l/m 0 min 0 min 94 W/m 12,9 km/h (3 Bft) 99,12 %
31.05.2019 07:45 16,3 C 16,7 C 15,6 C 81 % 1024,7 hPa 0,0 l/m 0 min 0 min 105 W/m 16,1 km/h (3 Bft) 100,00 %
31.05.2019 07:48 16,4 C 16,7 C 16,1 C 81 % 1024,8 hPa 0,0 l/m 0 min 0 min 112 W/m 6,4 km/h (2 Bft) 100,00 %
31.05.2019 07:50 16,4 C 16,7 C 16,1 C 81 % 1024,8 hPa 0,0 l/m 0 min 0 min 113 W/m 12,9 km/h (3 Bft) 95,00 %
31.05.2019 07:52 16,4 C 16,7 C 16,1 C 81 % 1024,8 hPa 0,0 l/m 0 min 0 min 115 W/m 9,7 km/h (2 Bft) 95,74 %
31.05.2019 07:54 16,4 C 16,7 C 16,1 C 80 % 1024,8 hPa 0,0 l/m 0 min 0 min 115 W/m 9,7 km/h (2 Bft) 95,74 %
31.05.2019 07:56 16,4 C 16,7 C 16,1 C 80 % 1024,9 hPa 0,0 l/m 0 min 0 min 107 W/m 12,9 km/h (3 Bft) 97,87 %
31.05.2019 07:58 16,4 C 16,7 C 16,1 C 80 % 1024,8 hPa 0,0 l/m 0 min 0 min 97 W/m 12,9 km/h (3 Bft) 100,00 %
31.05.2019 08:00 16,4 C 16,7 C 16,1 C 80 % 1024,9 hPa 0,0 l/m 0 min 0 min 100 W/m 16,1 km/h (3 Bft) 100,00 %
31.05.2019 08:02 16,5 C 16,7 C 16,1 C 80 % 1024,9 hPa 0,0 l/m 0 min 0 min 107 W/m 12,9 km/h (3 Bft) 97,87 %
31.05.2019 08:04 16,5 C 17,2 C 16,1 C 80 % 1024,9 hPa 0,0 l/m 0 min 0 min 111 W/m 16,1 km/h (3 Bft) 100,00 %
31.05.2019 08:06 16,5 C 17,2 C 16,1 C 80 % 1024,9 hPa 0,0 l/m 0 min 0 min 115 W/m 16,1 km/h (3 Bft) 98,08 %
31.05.2019 08:08 16,5 C 17,2 C 16,1 C 80 % 1024,9 hPa 0,0 l/m 0 min 0 min 123 W/m 16,1 km/h (3 Bft) 100,00 %
31.05.2019 08:10 16,5 C 17,2 C 16,1 C 80 % 1025,2 hPa 0,0 l/m 0 min 0 min 136 W/m 12,9 km/h (3 Bft) 95,74 %
31.05.2019 08:12 16,6 C 17,8 C 16,7 C 80 % 1025,2 hPa 0,0 l/m 0 min 0 min 154 W/m 16,1 km/h (3 Bft) 97,83 %
31.05.2019 08:14 16,6 C 17,8 C 16,7 C 79 % 1025,1 hPa 0,0 l/m 0 min 0 min 160 W/m 9,7 km/h (2 Bft) 97,87 %
31.05.2019 08:16 16,6 C 17,8 C 16,7 C 79 % 1025,1 hPa 0,0 l/m 0 min 0 min 149 W/m 22,5 km/h (4 Bft) 97,87 %
31.05.2019 08:18 16,7 C 18,3 C 16,7 C 79 % 1025,1 hPa 0,0 l/m 0 min 0 min 135 W/m 19,3 km/h (3 Bft) 95,74 %
31.05.2019 08:20 16,7 C 18,9 C 16,7 C 79 % 1025,0 hPa 0,0 l/m 0 min 0 min 121 W/m 9,7 km/h (2 Bft) 97,87 %
31.05.2019 08:22 16,7 C 18,9 C 16,7 C 79 % 1025,1 hPa 0,0 l/m 0 min 0 min 106 W/m 12,9 km/h (3 Bft) 97,87 %
31.05.2019 08:24 16,8 C 20,0 C 16,7 C 79 % 1024,9 hPa 0,0 l/m 0 min 0 min 90 W/m 12,9 km/h (3 Bft) 97,83 %
31.05.2019 08:26 16,8 C 19,4 C 16,7 C 79 % 1024,9 hPa 0,0 l/m 0 min 0 min 64 W/m 22,5 km/h (4 Bft) 97,87 %
31.05.2019 08:28 16,9 C 20,0 C 16,7 C 79 % 1024,9 hPa 0,0 l/m 0 min 0 min 57 W/m 19,3 km/h (3 Bft) 93,62 %
31.05.2019 08:30 16,9 C 20,6 C 18,3 C 79 % 1024,9 hPa 0,0 l/m 0 min 0 min 60 W/m 12,9 km/h (3 Bft) 95,74 %
31.05.2019 08:32 17,0 C 21,1 C 20,0 C 78 % 1025,0 hPa 0,0 l/m 0 min 0 min 62 W/m 16,1 km/h (3 Bft) 95,74 %
31.05.2019 08:34 17,1 C 21,1 C 20,6 C 78 % 1025,0 hPa 0,0 l/m 0 min 0 min 63 W/m 16,1 km/h (3 Bft) 95,74 %
31.05.2019 08:36 17,2 C 21,1 C 20,6 C 78 % 1025,0 hPa 0,0 l/m 0 min 0 min 66 W/m 16,1 km/h (3 Bft) 97,83 %
31.05.2019 08:38 17,2 C 21,7 C 21,7 C 78 % 1024,9 hPa 0,0 l/m 0 min 0 min 70 W/m 12,9 km/h (3 Bft) 95,74 %
31.05.2019 08:40 17,3 C 21,7 C 21,7 C 78 % 1024,9 hPa 0,0 l/m 0 min 0 min 77 W/m 12,9 km/h (3 Bft) 95,74 %
31.05.2019 08:42 17,4 C 21,7 C 21,7 C 77 % 1025,0 hPa 0,0 l/m 0 min 0 min 88 W/m 19,3 km/h (3 Bft) 89,36 %
31.05.2019 08:44 17,5 C 22,2 C 21,7 C 77 % 1025,0 hPa 0,0 l/m 0 min 0 min 103 W/m 9,7 km/h (2 Bft) 97,87 %
31.05.2019 08:46 17,6 C 22,8 C 22,8 C 77 % 1025,0 hPa 0,0 l/m 0 min 0 min 134 W/m 9,7 km/h (2 Bft) 97,83 %
31.05.2019 08:48 17,8 C 22,8 C 22,2 C 77 % 1025,0 hPa 0,0 l/m 0 min 0 min 150 W/m 9,7 km/h (2 Bft) 96,36 %
31.05.2019 08:50 17,8 C 21,7 C 21,1 C 76 % 1025,1 hPa 0,0 l/m 0 min 0 min 124 W/m 12,9 km/h (3 Bft) 95,74 %
31.05.2019 08:52 17,9 C 21,1 C 20,6 C 76 % 1025,1 hPa 0,0 l/m 0 min 0 min 136 W/m 12,9 km/h (3 Bft) 93,48 %
31.05.2019 08:54 18,0 C 20,6 C 20,0 C 76 % 1025,1 hPa 0,0 l/m 0 min 0 min 131 W/m 9,7 km/h (2 Bft) 100,00 %
31.05.2019 08:56 18,1 C 20,6 C 20,0 C 76 % 1025,1 hPa 0,0 l/m 0 min 0 min 142 W/m 9,7 km/h (2 Bft) 95,74 %
31.05.2019 08:58 18,1 C 22,8 C 21,7 C 76 % 1025,1 hPa 0,0 l/m 2 min 0 min 294 W/m 12,9 km/h (3 Bft) 97,87 %
31.05.2019 09:00 18,2 C 23,3 C 22,8 C 76 % 1025,2 hPa 0,0 l/m 2 min 0 min 382 W/m 6,4 km/h (2 Bft) 97,87 %
31.05.2019 09:02 18,3 C 23,3 C 23,3 C 76 % 1025,2 hPa 0,0 l/m 2 min 0 min 420 W/m 9,7 km/h (2 Bft) 95,74 %
31.05.2019 09:04 18,4 C 23,9 C 23,9 C 76 % 1025,3 hPa 0,0 l/m 2 min 0 min 463 W/m 16,1 km/h (3 Bft) 97,83 %
31.05.2019 09:06 18,5 C 23,3 C 23,3 C 75 % 1025,3 hPa 0,0 l/m 2 min 0 min 328 W/m 16,1 km/h (3 Bft) 97,87 %
31.05.2019 09:08 18,6 C 22,8 C 22,2 C 74 % 1025,2 hPa 0,0 l/m 2 min 0 min 345 W/m 12,9 km/h (3 Bft) 94,74 %
31.05.2019 09:10 18,6 C 22,2 C 22,2 C 73 % 1025,2 hPa 0,0 l/m 2 min 0 min 479 W/m 16,1 km/h (3 Bft) 97,87 %
31.05.2019 09:12 18,7 C 22,8 C 22,8 C 73 % 1025,3 hPa 0,0 l/m 2 min 0 min 509 W/m 9,7 km/h (2 Bft) 97,87 %
31.05.2019 09:14 18,7 C 22,8 C 22,8 C 73 % 1025,4 hPa 0,0 l/m 2 min 0 min 516 W/m 9,7 km/h (2 Bft) 93,62 %
31.05.2019 09:16 18,8 C 23,3 C 22,8 C 73 % 1025,4 hPa 0,0 l/m 2 min 0 min 522 W/m 9,7 km/h (2 Bft) 97,87 %
31.05.2019 09:18 18,9 C 23,9 C 23,3 C 73 % 1025,5 hPa 0,0 l/m 2 min 0 min 528 W/m 16,1 km/h (3 Bft) 97,83 %
31.05.2019 09:20 18,9 C 24,4 C 23,9 C 72 % 1025,4 hPa 0,0 l/m 2 min 0 min 533 W/m 6,4 km/h (2 Bft) 97,87 %
31.05.2019 09:22 19,1 C 24,4 C 24,4 C 72 % 1025,3 hPa 0,0 l/m 2 min 0 min 541 W/m 9,7 km/h (2 Bft) 95,74 %
31.05.2019 09:24 19,1 C 25,0 C 25,0 C 72 % 1025,3 hPa 0,0 l/m 2 min 0 min 547 W/m 9,7 km/h (2 Bft) 97,87 %
31.05.2019 09:26 19,2 C 25,6 C 25,0 C 72 % 1025,2 hPa 0,0 l/m 2 min 0 min 556 W/m 6,4 km/h (2 Bft) 100,00 %
31.05.2019 09:28 19,4 C 25,6 C 25,6 C 72 % 1025,3 hPa 0,0 l/m 2 min 0 min 562 W/m 12,9 km/h (3 Bft) 95,74 %
31.05.2019 09:30 19,5 C 25,6 C 25,6 C 71 % 1025,3 hPa 0,0 l/m 2 min 0 min 566 W/m 6,4 km/h (2 Bft) 97,83 %
31.05.2019 09:32 19,6 C 25,0 C 25,6 C 71 % 1025,3 hPa 0,0 l/m 2 min 0 min 569 W/m 9,7 km/h (2 Bft) 97,87 %
31.05.2019 09:34 19,7 C 25,6 C 25,6 C 71 % 1025,2 hPa 0,0 l/m 2 min 0 min 565 W/m 9,7 km/h (2 Bft) 97,87 %
31.05.2019 09:36 19,8 C 25,6 C 25,6 C 71 % 1025,2 hPa 0,0 l/m 2 min 0 min 571 W/m 16,1 km/h (3 Bft) 93,75 %
31.05.2019 09:38 19,9 C 26,1 C 26,1 C 70 % 1025,3 hPa 0,0 l/m 2 min 0 min 589 W/m 12,9 km/h (3 Bft) 95,56 %
31.05.2019 09:40 20,1 C 26,1 C 25,6 C 70 % 1025,3 hPa 0,0 l/m 2 min 0 min 595 W/m 9,7 km/h (2 Bft) 95,74 %
31.05.2019 09:42 20,2 C 26,1 C 25,6 C 70 % 1025,3 hPa 0,0 l/m 2 min 0 min 577 W/m 12,9 km/h (3 Bft) 95,74 %
31.05.2019 09:44 20,3 C 26,7 C 26,1 C 70 % 1025,3 hPa 0,0 l/m 2 min 0 min 612 W/m 12,9 km/h (3 Bft) 95,65 %
31.05.2019 09:46 20,3 C 26,1 C 26,1 C 69 % 1025,3 hPa 0,0 l/m 2 min 0 min 617 W/m 9,7 km/h (2 Bft) 93,62 %
31.05.2019 09:48 20,4 C 26,7 C 26,7 C 68 % 1025,2 hPa 0,0 l/m 2 min 0 min 623 W/m 9,7 km/h (2 Bft) 95,74 %
31.05.2019 09:50 20,6 C 26,7 C 27,2 C 69 % 1025,3 hPa 0,0 l/m 2 min 0 min 616 W/m 16,1 km/h (3 Bft) 95,74 %
31.05.2019 09:52 20,7 C 26,1 C 26,7 C 68 % 1025,2 hPa 0,0 l/m 2 min 0 min 627 W/m 16,1 km/h (3 Bft) 95,74 %
31.05.2019 09:54 20,7 C 26,1 C 26,7 C 67 % 1025,4 hPa 0,0 l/m 2 min 0 min 617 W/m 16,1 km/h (3 Bft) 95,65 %
31.05.2019 09:56 20,8 C 26,7 C 26,7 C 67 % 1025,3 hPa 0,0 l/m 2 min 0 min 637 W/m 9,7 km/h (2 Bft) 93,62 %
31.05.2019 09:58 20,9 C 26,7 C 26,7 C 67 % 1025,2 hPa 0,0 l/m 2 min 0 min 642 W/m 6,4 km/h (2 Bft) 95,74 %
31.05.2019 10:00 20,9 C 26,7 C 26,7 C 67 % 1025,1 hPa 0,0 l/m 2 min 0 min 629 W/m 12,9 km/h (3 Bft) 95,74 %
31.05.2019 10:02 21,0 C 26,7 C 26,7 C 67 % 1025,2 hPa 0,0 l/m 2 min 0 min 649 W/m 16,1 km/h (3 Bft) 95,74 %
31.05.2019 10:04 21,0 C 26,1 C 26,1 C 66 % 1025,2 hPa 0,0 l/m 2 min 0 min 646 W/m 9,7 km/h (2 Bft) 95,74 %
31.05.2019 10:06 21,0 C 26,1 C 26,1 C 66 % 1025,3 hPa 0,0 l/m 2 min 0 min 649 W/m 9,7 km/h (2 Bft) 97,83 %
31.05.2019 10:08 21,1 C 26,7 C 26,7 C 66 % 1025,2 hPa 0,0 l/m 2 min 0 min 662 W/m 9,7 km/h (2 Bft) 95,83 %
31.05.2019 10:10 21,1 C 26,1 C 26,7 C 66 % 1025,2 hPa 0,0 l/m 2 min 0 min 679 W/m 9,7 km/h (2 Bft) 95,74 %
31.05.2019 10:12 21,1 C 26,7 C 27,2 C 66 % 1025,3 hPa 0,0 l/m 2 min 0 min 672 W/m 19,3 km/h (3 Bft) 91,49 %
31.05.2019 10:14 21,2 C 26,1 C 26,1 C 65 % 1025,2 hPa 0,0 l/m 2 min 0 min 671 W/m 12,9 km/h (3 Bft) 95,74 %
31.05.2019 10:16 21,2 C 26,1 C 25,6 C 65 % 1025,2 hPa 0,0 l/m 2 min 0 min 663 W/m 16,1 km/h (3 Bft) 95,65 %
31.05.2019 10:18 21,2 C 25,6 C 26,1 C 65 % 1025,1 hPa 0,0 l/m 2 min 0 min 697 W/m 16,1 km/h (3 Bft) 95,74 %
31.05.2019 10:20 21,2 C 25,6 C 25,6 C 64 % 1025,1 hPa 0,0 l/m 2 min 0 min 711 W/m 12,9 km/h (3 Bft) 97,87 %
31.05.2019 10:22 21,1 C 25,6 C 25,6 C 65 % 1025,0 hPa 0,0 l/m 2 min 0 min 690 W/m 16,1 km/h (3 Bft) 97,87 %
31.05.2019 10:24 21,1 C 26,1 C 26,1 C 66 % 1025,1 hPa 0,0 l/m 2 min 0 min 687 W/m 9,7 km/h (2 Bft) 97,87 %
31.05.2019 10:26 21,0 C 26,1 C 26,1 C 66 % 1025,1 hPa 0,0 l/m 2 min 0 min 701 W/m 16,1 km/h (3 Bft) 100,00 %
31.05.2019 10:28 21,1 C 26,1 C 26,1 C 66 % 1025,1 hPa 0,0 l/m 2 min 0 min 710 W/m 9,7 km/h (2 Bft) 100,00 %
31.05.2019 10:30 21,1 C 26,1 C 26,1 C 66 % 1025,0 hPa 0,0 l/m 2 min 0 min 718 W/m 9,7 km/h (2 Bft) 100,00 %
31.05.2019 10:32 21,1 C 26,1 C 26,1 C 65 % 1024,9 hPa 0,0 l/m 2 min 0 min 724 W/m 16,1 km/h (3 Bft) 100,00 %
31.05.2019 10:34 21,1 C 25,6 C 25,0 C 65 % 1024,9 hPa 0,0 l/m 2 min 0 min 728 W/m 19,3 km/h (3 Bft) 100,00 %
31.05.2019 10:36 21,1 C 26,1 C 26,7 C 65 % 1025,0 hPa 0,0 l/m 2 min 0 min 736 W/m 16,1 km/h (3 Bft) 100,00 %
31.05.2019 10:38 21,2 C 26,7 C 27,8 C 66 % 1025,0 hPa 0,0 l/m 2 min 0 min 738 W/m 16,1 km/h (3 Bft) 100,00 %
31.05.2019 10:40 21,3 C 26,7 C 27,8 C 66 % 1024,9 hPa 0,0 l/m 2 min 0 min 737 W/m 12,9 km/h (3 Bft) 100,00 %
31.05.2019 10:42 21,3 C 27,2 C 27,8 C 65 % 1025,0 hPa 0,0 l/m 2 min 0 min 741 W/m 12,9 km/h (3 Bft) 97,83 %
31.05.2019 10:44 21,4 C 27,2 C 27,2 C 65 % 1025,0 hPa 0,0 l/m 2 min 0 min 749 W/m 12,9 km/h (3 Bft) 100,00 %
31.05.2019 10:46 21,5 C 28,3 C 28,3 C 65 % 1025,0 hPa 0,0 l/m 2 min 0 min 746 W/m 9,7 km/h (2 Bft) 100,00 %
31.05.2019 10:48 21,6 C 27,2 C 27,2 C 65 % 1025,0 hPa 0,0 l/m 2 min 0 min 753 W/m 12,9 km/h (3 Bft) 97,87 %
31.05.2019 10:50 21,5 C 26,1 C 26,1 C 64 % 1025,0 hPa 0,0 l/m 2 min 0 min 769 W/m 9,7 km/h (2 Bft) 100,00 %
31.05.2019 10:52 21,6 C 26,7 C 27,8 C 65 % 1025,0 hPa 0,0 l/m 2 min 0 min 776 W/m 16,1 km/h (3 Bft) 100,00 %
31.05.2019 10:54 21,6 C 27,2 C 27,2 C 65 % 1025,1 hPa 0,0 l/m 2 min 0 min 778 W/m 16,1 km/h (3 Bft) 97,87 %
31.05.2019 10:56 21,6 C 27,2 C 27,2 C 64 % 1025,1 hPa 0,0 l/m 2 min 0 min 782 W/m 12,9 km/h (3 Bft) 100,00 %
31.05.2019 10:58 21,6 C 25,6 C 26,1 C 63 % 1025,1 hPa 0,0 l/m 2 min 0 min 793 W/m 25,7 km/h (4 Bft) 100,00 %
31.05.2019 11:00 21,6 C 26,1 C 26,7 C 64 % 1025,1 hPa 0,0 l/m 2 min 0 min 809 W/m 22,5 km/h (4 Bft) 100,00 %
31.05.2019 11:02 21,6 C 26,1 C 26,1 C 63 % 1025,0 hPa 0,0 l/m 2 min 0 min 815 W/m 16,1 km/h (3 Bft) 100,00 %
31.05.2019 11:04 21,6 C 27,2 C 26,7 C 64 % 1025,1 hPa 0,0 l/m 2 min 0 min 832 W/m 22,5 km/h (4 Bft) 97,83 %
31.05.2019 11:06 21,6 C 27,2 C 27,8 C 65 % 1025,0 hPa 0,0 l/m 2 min 0 min 824 W/m 9,7 km/h (2 Bft) 98,31 %
31.05.2019 11:08 21,7 C 24,4 C 25,0 C 64 % 1025,1 hPa 0,0 l/m 2 min 0 min 551 W/m 16,1 km/h (3 Bft) 97,14 %
31.05.2019 11:10 21,6 C 24,4 C 25,0 C 64 % 1025,1 hPa 0,0 l/m 0 min 0 min 193 W/m 9,7 km/h (2 Bft) 97,87 %
31.05.2019 11:12 21,7 C 26,7 C 26,7 C 64 % 1025,0 hPa 0,0 l/m 2 min 0 min 839 W/m 6,4 km/h (2 Bft) 97,87 %
31.05.2019 11:14 21,7 C 27,8 C 28,3 C 66 % 1025,0 hPa 0,0 l/m 2 min 0 min 857 W/m 9,7 km/h (2 Bft) 97,87 %
31.05.2019 11:16 21,8 C 28,3 C 28,9 C 65 % 1025,0 hPa 0,0 l/m 2 min 0 min 872 W/m 16,1 km/h (3 Bft) 97,83 %
31.05.2019 11:18 21,9 C 28,3 C 30,0 C 66 % 1025,0 hPa 0,0 l/m 2 min 0 min 881 W/m 6,4 km/h (2 Bft) 97,87 %
31.05.2019 11:20 22,1 C 26,1 C 27,8 C 64 % 1025,0 hPa 0,0 l/m 2 min 0 min 708 W/m 12,9 km/h (3 Bft) 97,87 %
31.05.2019 11:22 22,0 C 26,7 C 27,2 C 64 % 1025,0 hPa 0,0 l/m 2 min 0 min 705 W/m 9,7 km/h (2 Bft) 95,74 %
31.05.2019 11:24 22,1 C 27,8 C 28,9 C 65 % 1025,0 hPa 0,0 l/m 2 min 0 min 975 W/m 12,9 km/h (3 Bft) 97,87 %
31.05.2019 11:26 22,2 C 26,7 C 27,2 C 65 % 1025,1 hPa 0,0 l/m 2 min 0 min 977 W/m 6,4 km/h (2 Bft) 95,74 %
31.05.2019 11:28 22,2 C 26,7 C 26,7 C 65 % 1025,1 hPa 0,0 l/m 0 min 0 min 223 W/m 6,4 km/h (2 Bft) 97,83 %
31.05.2019 11:30 22,2 C 25,6 C 26,1 C 64 % 1025,1 hPa 0,0 l/m 0 min 0 min 222 W/m 12,9 km/h (3 Bft) 97,87 %
31.05.2019 11:32 22,2 C 26,1 C 26,1 C 63 % 1025,1 hPa 0,0 l/m 0 min 0 min 315 W/m 6,4 km/h (2 Bft) 97,87 %
31.05.2019 11:34 22,2 C 26,1 C 26,1 C 64 % 1025,1 hPa 0,0 l/m 0 min 0 min 309 W/m 12,9 km/h (3 Bft) 97,87 %
31.05.2019 11:36 22,2 C 23,9 C 24,4 C 64 % 1025,1 hPa 0,0 l/m 0 min 0 min 206 W/m 6,4 km/h (2 Bft) 97,87 %
31.05.2019 11:38 22,1 C 23,9 C 24,4 C 64 % 1025,1 hPa 0,0 l/m 0 min 0 min 185 W/m 12,9 km/h (3 Bft) 97,92 %
31.05.2019 11:40 22,1 C 25,6 C 25,6 C 65 % 1025,0 hPa 0,0 l/m 0 min 0 min 329 W/m 6,4 km/h (2 Bft) 97,83 %
31.05.2019 11:42 22,1 C 27,8 C 28,3 C 66 % 1025,1 hPa 0,0 l/m 2 min 0 min 999 W/m 9,7 km/h (2 Bft) 95,74 %
31.05.2019 11:44 22,2 C 28,9 C 29,4 C 65 % 1025,1 hPa 0,0 l/m 2 min 0 min 1018 W/m 12,9 km/h (3 Bft) 95,74 %
31.05.2019 11:46 22,4 C 28,9 C 30,0 C 66 % 1025,1 hPa 0,0 l/m 2 min 0 min 986 W/m 6,4 km/h (2 Bft) 97,87 %
31.05.2019 11:48 22,6 C 30,0 C 31,1 C 64 % 1025,1 hPa 0,0 l/m 2 min 0 min 966 W/m 12,9 km/h (3 Bft) 97,87 %
31.05.2019 11:50 22,6 C 28,3 C 30,0 C 63 % 1025,0 hPa 0,0 l/m 2 min 0 min 967 W/m 9,7 km/h (2 Bft) 97,87 %
31.05.2019 11:52 22,7 C 28,9 C 30,6 C 64 % 1025,1 hPa 0,0 l/m 2 min 0 min 981 W/m 9,7 km/h (2 Bft) 97,83 %
31.05.2019 11:54 22,8 C 30,0 C 31,1 C 63 % 1025,2 hPa 0,0 l/m 2 min 0 min 1013 W/m 19,3 km/h (3 Bft) 97,87 %
31.05.2019 11:56 22,9 C 29,4 C 31,1 C 62 % 1025,0 hPa 0,0 l/m 2 min 0 min 1036 W/m 12,9 km/h (3 Bft) 97,87 %
31.05.2019 11:58 22,9 C 30,6 C 31,7 C 63 % 1025,1 hPa 0,0 l/m 2 min 0 min 1046 W/m 12,9 km/h (3 Bft) 97,87 %
31.05.2019 12:00 23,0 C 27,8 C 28,3 C 62 % 1025,2 hPa 0,0 l/m 2 min 0 min 1062 W/m 19,3 km/h (3 Bft) 100,00 %
31.05.2019 12:02 23,1 C 28,3 C 29,4 C 62 % 1025,0 hPa 0,0 l/m 2 min 0 min 1003 W/m 19,3 km/h (3 Bft) 100,00 %
31.05.2019 12:04 23,1 C 29,4 C 30,0 C 62 % 1025,0 hPa 0,0 l/m 2 min 0 min 986 W/m 9,7 km/h (2 Bft) 97,87 %
31.05.2019 12:08 23,2 C 30,0 C 31,1 C 64 % 1025,0 hPa 0,0 l/m 4 min 0 min 1008 W/m 9,7 km/h (2 Bft) 97,87 %
31.05.2019 12:10 23,3 C 30,6 C 31,1 C 62 % 1025,0 hPa 0,0 l/m 2 min 0 min 1085 W/m 12,9 km/h (3 Bft) 97,87 %
31.05.2019 12:12 23,4 C 30,0 C 30,6 C 61 % 1025,1 hPa 0,0 l/m 2 min 0 min 1069 W/m 16,1 km/h (3 Bft) 97,87 %
31.05.2019 12:14 23,6 C 31,1 C 31,1 C 61 % 1025,1 hPa 0,0 l/m 2 min 0 min 1051 W/m 12,9 km/h (3 Bft) 93,48 %
31.05.2019 12:16 23,7 C 31,1 C 31,7 C 62 % 1025,1 hPa 0,0 l/m 2 min 0 min 1081 W/m 9,7 km/h (2 Bft) 95,74 %
31.05.2019 12:18 23,8 C 30,0 C 30,6 C 59 % 1025,0 hPa 0,0 l/m 2 min 0 min 1100 W/m 19,3 km/h (3 Bft) 97,87 %
31.05.2019 12:20 23,8 C 28,9 C 30,0 C 59 % 1025,0 hPa 0,0 l/m 2 min 0 min 1104 W/m 19,3 km/h (3 Bft) 97,87 %
31.05.2019 12:22 23,8 C 28,3 C 29,4 C 58 % 1025,1 hPa 0,0 l/m 2 min 0 min 1113 W/m 9,7 km/h (2 Bft) 97,87 %
31.05.2019 12:24 23,8 C 28,3 C 28,9 C 60 % 1025,1 hPa 0,0 l/m 2 min 0 min 1123 W/m 12,9 km/h (3 Bft) 97,87 %
31.05.2019 12:26 23,6 C 26,1 C 27,2 C 59 % 1025,1 hPa 0,0 l/m 2 min 0 min 1141 W/m 16,1 km/h (3 Bft) 97,83 %
31.05.2019 12:28 23,4 C 25,0 C 25,6 C 60 % 1025,1 hPa 0,0 l/m 2 min 0 min 1141 W/m 16,1 km/h (3 Bft) 97,96 %
31.05.2019 12:30 23,2 C 26,1 C 26,1 C 60 % 1025,1 hPa 0,0 l/m 2 min 0 min 1141 W/m 12,9 km/h (3 Bft) 95,65 %
31.05.2019 12:32 23,2 C 25,6 C 25,6 C 62 % 1025,1 hPa 0,0 l/m 0 min 0 min 364 W/m 3,2 km/h (1 Bft) 97,87 %
31.05.2019 12:34 23,2 C 26,7 C 27,8 C 62 % 1025,1 hPa 0,0 l/m 2 min 0 min 494 W/m 9,7 km/h (2 Bft) 97,87 %
31.05.2019 12:36 23,2 C 26,7 C 27,8 C 62 % 1025,0 hPa 0,0 l/m 2 min 0 min 1134 W/m 9,7 km/h (2 Bft) 100,00 %
31.05.2019 12:38 23,2 C 27,8 C 28,9 C 62 % 1025,0 hPa 0,0 l/m 2 min 0 min 446 W/m 6,4 km/h (2 Bft) 97,87 %
31.05.2019 12:40 23,3 C 28,9 C 30,6 C 63 % 1025,0 hPa 0,0 l/m 2 min 0 min 1115 W/m 12,9 km/h (3 Bft) 97,83 %
31.05.2019 12:42 23,4 C 30,0 C 31,1 C 63 % 1025,0 hPa 0,0 l/m 2 min 0 min 1182 W/m 12,9 km/h (3 Bft) 97,87 %
31.05.2019 12:44 23,5 C 27,2 C 28,3 C 61 % 1025,0 hPa 0,0 l/m 2 min 0 min 1146 W/m 16,1 km/h (3 Bft) 97,87 %
31.05.2019 12:46 23,5 C 26,7 C 26,7 C 62 % 1025,0 hPa 0,0 l/m 0 min 0 min 339 W/m 9,7 km/h (2 Bft) 97,87 %
31.05.2019 12:48 23,5 C 25,6 C 25,0 C 61 % 1025,1 hPa 0,0 l/m 0 min 0 min 297 W/m 12,9 km/h (3 Bft) 97,87 %
31.05.2019 12:50 23,4 C 25,0 C 24,4 C 62 % 1025,0 hPa 0,0 l/m 0 min 0 min 295 W/m 9,7 km/h (2 Bft) 100,00 %
31.05.2019 12:52 23,4 C 26,1 C 26,7 C 61 % 1025,0 hPa 0,0 l/m 0 min 0 min 345 W/m 12,9 km/h (3 Bft) 100,00 %
31.05.2019 12:54 23,5 C 28,3 C 28,3 C 61 % 1025,1 hPa 0,0 l/m 2 min 0 min 1028 W/m 6,4 km/h (2 Bft) 100,00 %
31.05.2019 12:56 23,6 C 27,2 C 27,2 C 62 % 1025,0 hPa 0,0 l/m 2 min 0 min 449 W/m 6,4 km/h (2 Bft) 100,00 %
31.05.2019 12:58 23,7 C 25,6 C 26,1 C 61 % 1025,0 hPa 0,0 l/m 0 min 0 min 344 W/m 9,7 km/h (2 Bft) 100,00 %
31.05.2019 13:00 23,7 C 25,6 C 25,6 C 62 % 1025,0 hPa 0,0 l/m 0 min 0 min 354 W/m 9,7 km/h (2 Bft) 100,00 %
31.05.2019 13:02 23,6 C 24,4 C 25,0 C 60 % 1025,0 hPa 0,0 l/m 0 min 0 min 350 W/m 16,1 km/h (3 Bft) 95,74 %
31.05.2019 13:04 23,6 C 25,0 C 25,6 C 60 % 1025,0 hPa 0,0 l/m 0 min 0 min 374 W/m 16,1 km/h (3 Bft) 100,00 %
31.05.2019 13:06 23,5 C 24,4 C 25,6 C 60 % 1025,1 hPa 0,0 l/m 0 min 0 min 350 W/m 9,7 km/h (2 Bft) 100,00 %
31.05.2019 13:08 23,5 C 24,4 C 25,6 C 60 % 1025,0 hPa 0,0 l/m 0 min 0 min 355 W/m 12,9 km/h (3 Bft) 100,00 %
31.05.2019 13:10 23,4 C 24,4 C 25,0 C 62 % 1025,0 hPa 0,0 l/m 0 min 0 min 284 W/m 9,7 km/h (2 Bft) 97,87 %
31.05.2019 13:12 23,4 C 26,1 C 26,1 C 60 % 1025,0 hPa 0,0 l/m 0 min 0 min 239 W/m 9,7 km/h (2 Bft) 97,87 %
31.05.2019 13:14 23,4 C 27,8 C 28,9 C 60 % 1025,0 hPa 0,0 l/m 2 min 0 min 731 W/m 9,7 km/h (2 Bft) 100,00 %
31.05.2019 13:16 23,5 C 28,9 C 30,6 C 60 % 1024,9 hPa 0,0 l/m 2 min 0 min 1064 W/m 22,5 km/h (4 Bft) 95,65 %
31.05.2019 13:18 23,6 C 27,8 C 28,9 C 60 % 1024,9 hPa 0,0 l/m 2 min 0 min 1092 W/m 16,1 km/h (3 Bft) 100,00 %
31.05.2019 13:20 23,6 C 28,3 C 30,0 C 59 % 1024,9 hPa 0,0 l/m 2 min 0 min 1122 W/m 16,1 km/h (3 Bft) 97,87 %
31.05.2019 13:22 23,7 C 27,8 C 30,0 C 59 % 1024,9 hPa 0,0 l/m 2 min 0 min 1148 W/m 19,3 km/h (3 Bft) 97,87 %
31.05.2019 13:24 23,6 C 26,1 C 27,8 C 59 % 1024,9 hPa 0,0 l/m 2 min 0 min 1176 W/m 16,1 km/h (3 Bft) 100,00 %
31.05.2019 13:26 23,6 C 25,6 C 26,7 C 59 % 1024,9 hPa 0,0 l/m 2 min 0 min 664 W/m 22,5 km/h (4 Bft) 97,87 %
31.05.2019 13:28 23,5 C 25,0 C 25,6 C 59 % 1024,9 hPa 0,0 l/m 0 min 0 min 299 W/m 9,7 km/h (2 Bft) 97,83 %
31.05.2019 13:30 23,5 C 27,2 C 28,3 C 59 % 1024,8 hPa 0,0 l/m 2 min 0 min 679 W/m 16,1 km/h (3 Bft) 97,87 %
31.05.2019 13:32 23,5 C 26,7 C 27,8 C 61 % 1024,9 hPa 0,0 l/m 2 min 0 min 635 W/m 16,1 km/h (3 Bft) 97,87 %
31.05.2019 13:34 23,5 C 26,1 C 27,2 C 60 % 1024,9 hPa 0,0 l/m 0 min 0 min 311 W/m 16,1 km/h (3 Bft) 95,74 %
31.05.2019 13:36 23,4 C 25,0 C 25,6 C 59 % 1024,9 hPa 0,0 l/m 0 min 0 min 345 W/m 16,1 km/h (3 Bft) 97,87 %
31.05.2019 13:38 23,4 C 24,4 C 25,0 C 60 % 1024,9 hPa 0,0 l/m 0 min 0 min 341 W/m 12,9 km/h (3 Bft) 97,87 %
31.05.2019 13:40 23,4 C 25,0 C 25,6 C 61 % 1024,8 hPa 0,0 l/m 0 min 0 min 371 W/m 16,1 km/h (3 Bft) 97,83 %
31.05.2019 13:42 23,4 C 26,7 C 27,2 C 62 % 1024,8 hPa 0,0 l/m 0 min 0 min 369 W/m 12,9 km/h (3 Bft) 97,96 %
31.05.2019 13:44 23,4 C 25,0 C 25,6 C 61 % 1024,9 hPa 0,0 l/m 0 min 0 min 299 W/m 12,9 km/h (3 Bft) 97,87 %
31.05.2019 13:46 23,4 C 24,4 C 25,0 C 61 % 1024,8 hPa 0,0 l/m 0 min 0 min 347 W/m 9,7 km/h (2 Bft) 95,74 %
31.05.2019 13:48 23,4 C 24,4 C 24,4 C 62 % 1024,9 hPa 0,0 l/m 0 min 0 min 371 W/m 6,4 km/h (2 Bft) 97,83 %
31.05.2019 13:50 23,4 C 24,4 C 23,9 C 62 % 1024,8 hPa 0,0 l/m 0 min 0 min 358 W/m 12,9 km/h (3 Bft) 97,87 %
31.05.2019 13:52 23,4 C 25,0 C 24,4 C 62 % 1024,8 hPa 0,0 l/m 0 min 0 min 347 W/m 6,4 km/h (2 Bft) 97,87 %
31.05.2019 13:54 23,3 C 24,4 C 23,9 C 62 % 1024,8 hPa 0,0 l/m 0 min 0 min 355 W/m 9,7 km/h (2 Bft) 95,74 %
31.05.2019 13:56 23,3 C 23,9 C 23,9 C 61 % 1024,7 hPa 0,0 l/m 0 min 0 min 369 W/m 9,7 km/h (2 Bft) 97,87 %
31.05.2019 13:58 23,2 C 23,9 C 24,4 C 61 % 1024,8 hPa 0,0 l/m 0 min 0 min 356 W/m 9,7 km/h (2 Bft) 97,87 %
31.05.2019 14:00 23,2 C 23,3 C 24,4 C 61 % 1024,8 hPa 0,0 l/m 2 min 0 min 562 W/m 16,1 km/h (3 Bft) 97,83 %
31.05.2019 14:02 23,1 C 24,4 C 25,0 C 61 % 1024,9 hPa 0,0 l/m 0 min 0 min 354 W/m 12,9 km/h (3 Bft) 97,87 %
31.05.2019 14:04 23,1 C 25,0 C 25,6 C 63 % 1025,0 hPa 0,0 l/m 0 min 0 min 355 W/m 6,4 km/h (2 Bft) 95,74 %
31.05.2019 14:06 23,1 C 23,9 C 24,4 C 61 % 1025,0 hPa 0,0 l/m 0 min 0 min 344 W/m 19,3 km/h (3 Bft) 97,87 %
31.05.2019 14:08 23,1 C 24,4 C 23,9 C 62 % 1025,0 hPa 0,0 l/m 0 min 0 min 413 W/m 9,7 km/h (2 Bft) 97,87 %
31.05.2019 14:10 23,0 C 24,4 C 24,4 C 62 % 1025,0 hPa 0,0 l/m 2 min 0 min 466 W/m 16,1 km/h (3 Bft) 95,92 %
31.05.2019 14:12 23,0 C 24,4 C 24,4 C 61 % 1024,9 hPa 0,0 l/m 2 min 0 min 458 W/m 12,9 km/h (3 Bft) 97,87 %
31.05.2019 14:14 23,0 C 24,4 C 24,4 C 62 % 1024,8 hPa 0,0 l/m 0 min 0 min 376 W/m 29,0 km/h (5 Bft) 95,74 %
31.05.2019 14:16 22,9 C 25,0 C 25,6 C 62 % 1024,8 hPa 0,0 l/m 0 min 0 min 376 W/m 16,1 km/h (3 Bft) 95,74 %
31.05.2019 14:18 22,9 C 25,6 C 25,6 C 61 % 1024,9 hPa 0,0 l/m 0 min 0 min 376 W/m 22,5 km/h (4 Bft) 93,62 %
31.05.2019 14:20 22,9 C 26,7 C 27,2 C 61 % 1024,8 hPa 0,0 l/m 2 min 0 min 560 W/m 22,5 km/h (4 Bft) 95,24 %
31.05.2019 14:22 23,1 C 28,3 C 29,4 C 63 % 1024,8 hPa 0,0 l/m 2 min 0 min 1144 W/m 16,1 km/h (3 Bft) 95,92 %
31.05.2019 14:24 23,3 C 28,9 C 30,0 C 64 % 1024,8 hPa 0,0 l/m 2 min 0 min 1132 W/m 9,7 km/h (2 Bft) 93,62 %
31.05.2019 14:26 23,4 C 28,3 C 30,6 C 62 % 1024,9 hPa 0,0 l/m 2 min 0 min 1154 W/m 22,5 km/h (4 Bft) 95,83 %
31.05.2019 14:28 23,5 C 27,2 C 28,9 C 59 % 1024,8 hPa 0,0 l/m 2 min 0 min 1167 W/m 25,7 km/h (4 Bft) 97,92 %
31.05.2019 14:30 23,5 C 26,7 C 27,2 C 59 % 1024,8 hPa 0,0 l/m 2 min 0 min 1121 W/m 29,0 km/h (5 Bft) 97,87 %
31.05.2019 14:32 23,6 C 27,2 C 27,2 C 60 % 1024,8 hPa 0,0 l/m 2 min 0 min 1110 W/m 16,1 km/h (3 Bft) 95,74 %
31.05.2019 14:34 23,7 C 28,9 C 27,2 C 60 % 1024,8 hPa 0,0 l/m 2 min 0 min 1112 W/m 16,1 km/h (3 Bft) 97,62 %
31.05.2019 14:36 23,9 C 28,3 C 26,7 C 60 % 1024,7 hPa 0,0 l/m 2 min 0 min 1132 W/m 9,7 km/h (2 Bft) 93,88 %
31.05.2019 14:38 24,0 C 26,1 C 25,6 C 59 % 1024,8 hPa 0,0 l/m 2 min 0 min 675 W/m 19,3 km/h (3 Bft) 95,83 %
31.05.2019 14:40 24,0 C 25,6 C 25,0 C 59 % 1024,8 hPa 0,0 l/m 0 min 0 min 357 W/m 12,9 km/h (3 Bft) 94,29 %
31.05.2019 14:42 23,9 C 23,3 C 23,9 C 58 % 1024,9 hPa 0,0 l/m 0 min 0 min 351 W/m 19,3 km/h (3 Bft) 95,92 %
31.05.2019 14:44 23,8 C 23,3 C 23,9 C 58 % 1024,8 hPa 0,0 l/m 0 min 0 min 369 W/m 19,3 km/h (3 Bft) 95,74 %
31.05.2019 14:46 23,7 C 26,1 C 26,7 C 60 % 1024,7 hPa 0,0 l/m 2 min 0 min 777 W/m 12,9 km/h (3 Bft) 93,88 %
31.05.2019 14:48 23,7 C 26,7 C 27,2 C 60 % 1024,9 hPa 0,0 l/m 2 min 0 min 1101 W/m 12,9 km/h (3 Bft) 95,92 %
31.05.2019 14:50 23,8 C 27,8 C 27,2 C 60 % 1024,8 hPa 0,0 l/m 2 min 0 min 1116 W/m 16,1 km/h (3 Bft) 93,75 %
31.05.2019 14:52 23,8 C 27,8 C 26,1 C 60 % 1024,9 hPa 0,0 l/m 2 min 0 min 1040 W/m 12,9 km/h (3 Bft) 93,62 %
31.05.2019 14:54 23,8 C 26,7 C 25,0 C 59 % 1024,8 hPa 0,0 l/m 2 min 0 min 1042 W/m 16,1 km/h (3 Bft) 95,74 %
31.05.2019 14:56 23,9 C 27,2 C 25,6 C 60 % 1024,8 hPa 0,0 l/m 2 min 0 min 1052 W/m 9,7 km/h (2 Bft) 95,74 %
31.05.2019 14:58 23,9 C 27,2 C 25,6 C 60 % 1024,7 hPa 0,0 l/m 2 min 0 min 1074 W/m 9,7 km/h (2 Bft) 95,24 %
31.05.2019 15:00 24,0 C 25,6 C 25,0 C 60 % 1024,8 hPa 0,0 l/m 0 min 0 min 267 W/m 12,9 km/h (3 Bft) 94,44 %
31.05.2019 15:02 23,9 C 24,4 C 23,9 C 59 % 1024,9 hPa 0,0 l/m 0 min 0 min 281 W/m 12,9 km/h (3 Bft) 95,74 %
31.05.2019 15:04 23,8 C 23,9 C 23,3 C 58 % 1024,9 hPa 0,0 l/m 0 min 0 min 286 W/m 19,3 km/h (3 Bft) 93,62 %
31.05.2019 15:06 23,8 C 25,6 C 23,9 C 58 % 1024,9 hPa 0,0 l/m 2 min 0 min 777 W/m 12,9 km/h (3 Bft) 91,49 %
31.05.2019 15:08 23,8 C 25,6 C 24,4 C 59 % 1024,9 hPa 0,0 l/m 2 min 0 min 1028 W/m 12,9 km/h (3 Bft) 95,74 %
31.05.2019 15:10 23,7 C 25,0 C 23,9 C 59 % 1024,9 hPa 0,0 l/m 2 min 0 min 674 W/m 16,1 km/h (3 Bft) 97,96 %
31.05.2019 15:12 23,7 C 24,4 C 23,3 C 60 % 1024,8 hPa 0,0 l/m 0 min 0 min 334 W/m 6,4 km/h (2 Bft) 97,87 %
31.05.2019 15:14 23,7 C 24,4 C 23,3 C 60 % 1024,8 hPa 0,0 l/m 0 min 0 min 361 W/m 12,9 km/h (3 Bft) 97,87 %
31.05.2019 15:16 23,7 C 25,0 C 23,3 C 60 % 1024,8 hPa 0,0 l/m 2 min 0 min 397 W/m 12,9 km/h (3 Bft) 97,87 %
31.05.2019 15:18 23,6 C 25,6 C 23,9 C 60 % 1024,9 hPa 0,0 l/m 2 min 0 min 495 W/m 19,3 km/h (3 Bft) 100,00 %
31.05.2019 15:20 23,6 C 24,4 C 23,3 C 59 % 1024,9 hPa 0,0 l/m 2 min 0 min 720 W/m 12,9 km/h (3 Bft) 100,00 %
31.05.2019 15:22 23,5 C 23,3 C 23,3 C 59 % 1024,9 hPa 0,0 l/m 0 min 0 min 306 W/m 12,9 km/h (3 Bft) 100,00 %
31.05.2019 15:24 23,3 C 22,8 C 22,8 C 60 % 1024,8 hPa 0,0 l/m 0 min 0 min 263 W/m 9,7 km/h (2 Bft) 100,00 %
31.05.2019 15:26 23,2 C 22,8 C 22,8 C 61 % 1024,9 hPa 0,0 l/m 0 min 0 min 272 W/m 12,9 km/h (3 Bft) 100,00 %
31.05.2019 15:28 23,2 C 22,8 C 22,8 C 61 % 1024,8 hPa 0,0 l/m 0 min 0 min 263 W/m 6,4 km/h (2 Bft) 100,00 %
31.05.2019 15:30 23,1 C 23,9 C 22,8 C 61 % 1024,8 hPa 0,0 l/m 0 min 0 min 297 W/m 6,4 km/h (2 Bft) 100,00 %
31.05.2019 15:32 23,1 C 24,4 C 23,3 C 60 % 1024,8 hPa 0,0 l/m 2 min 0 min 786 W/m 19,3 km/h (3 Bft) 100,00 %
31.05.2019 15:34 23,1 C 25,6 C 23,3 C 63 % 1024,8 hPa 0,0 l/m 2 min 0 min 793 W/m 9,7 km/h (2 Bft) 100,00 %
31.05.2019 15:36 23,2 C 25,0 C 23,3 C 62 % 1024,8 hPa 0,0 l/m 2 min 0 min 768 W/m 16,1 km/h (3 Bft) 100,00 %
31.05.2019 15:38 23,3 C 25,6 C 23,3 C 61 % 1024,9 hPa 0,0 l/m 2 min 0 min 880 W/m 16,1 km/h (3 Bft) 97,87 %
31.05.2019 15:40 23,4 C 26,1 C 23,3 C 61 % 1024,8 hPa 0,0 l/m 2 min 0 min 885 W/m 12,9 km/h (3 Bft) 100,00 %
31.05.2019 15:42 23,4 C 26,1 C 23,3 C 61 % 1024,9 hPa 0,0 l/m 2 min 0 min 897 W/m 16,1 km/h (3 Bft) 100,00 %
31.05.2019 15:44 23,5 C 25,0 C 23,3 C 60 % 1024,9 hPa 0,0 l/m 2 min 0 min 907 W/m 12,9 km/h (3 Bft) 97,83 %
31.05.2019 15:46 23,6 C 26,1 C 23,3 C 61 % 1024,9 hPa 0,0 l/m 2 min 0 min 903 W/m 16,1 km/h (3 Bft) 100,00 %
31.05.2019 15:48 23,7 C 25,0 C 23,3 C 60 % 1024,9 hPa 0,0 l/m 2 min 0 min 858 W/m 12,9 km/h (3 Bft) 100,00 %
31.05.2019 15:50 23,8 C 25,6 C 23,9 C 60 % 1024,8 hPa 0,0 l/m 2 min 0 min 931 W/m 9,7 km/h (2 Bft) 100,00 %
31.05.2019 15:52 23,8 C 25,6 C 23,3 C 59 % 1024,8 hPa 0,0 l/m 2 min 0 min 960 W/m 6,4 km/h (2 Bft) 97,87 %
31.05.2019 15:54 23,9 C 25,6 C 23,9 C 59 % 1024,8 hPa 0,0 l/m 2 min 0 min 960 W/m 9,7 km/h (2 Bft) 100,00 %
31.05.2019 15:56 24,0 C 26,1 C 23,9 C 60 % 1024,6 hPa 0,0 l/m 2 min 0 min 936 W/m 16,1 km/h (3 Bft) 100,00 %
31.05.2019 15:58 24,1 C 26,1 C 23,9 C 60 % 1024,7 hPa 0,0 l/m 2 min 0 min 883 W/m 9,7 km/h (2 Bft) 97,87 %
31.05.2019 16:00 24,2 C 25,0 C 23,9 C 59 % 1024,8 hPa 0,0 l/m 2 min 0 min 858 W/m 19,3 km/h (3 Bft) 97,30 %
31.05.2019 16:02 24,2 C 25,0 C 23,9 C 59 % 1024,8 hPa 0,0 l/m 2 min 0 min 896 W/m 19,3 km/h (3 Bft) 100,00 %
31.05.2019 16:04 24,2 C 25,0 C 23,3 C 59 % 1024,8 hPa 0,0 l/m 2 min 0 min 891 W/m 12,9 km/h (3 Bft) 100,00 %
31.05.2019 16:06 24,3 C 25,0 C 23,3 C 58 % 1024,8 hPa 0,0 l/m 2 min 0 min 874 W/m 12,9 km/h (3 Bft) 97,87 %
31.05.2019 16:08 24,3 C 25,0 C 23,9 C 58 % 1024,8 hPa 0,0 l/m 2 min 0 min 841 W/m 16,1 km/h (3 Bft) 100,00 %
31.05.2019 16:10 24,3 C 24,4 C 23,3 C 58 % 1024,9 hPa 0,0 l/m 2 min 0 min 802 W/m 12,9 km/h (3 Bft) 97,87 %
31.05.2019 16:12 24,3 C 23,9 C 23,3 C 57 % 1024,8 hPa 0,0 l/m 2 min 0 min 798 W/m 16,1 km/h (3 Bft) 100,00 %
31.05.2019 16:14 24,3 C 23,9 C 23,3 C 59 % 1024,8 hPa 0,0 l/m 2 min 0 min 802 W/m 16,1 km/h (3 Bft) 100,00 %
31.05.2019 16:16 24,2 C 23,9 C 23,3 C 57 % 1024,8 hPa 0,0 l/m 2 min 0 min 771 W/m 12,9 km/h (3 Bft) 100,00 %
31.05.2019 16:18 24,3 C 23,9 C 23,3 C 58 % 1024,7 hPa 0,0 l/m 2 min 0 min 768 W/m 9,7 km/h (2 Bft) 100,00 %
31.05.2019 16:20 24,3 C 23,9 C 23,3 C 57 % 1024,7 hPa 0,0 l/m 2 min 0 min 790 W/m 12,9 km/h (3 Bft) 100,00 %
31.05.2019 16:22 24,3 C 23,9 C 23,3 C 58 % 1024,7 hPa 0,0 l/m 2 min 0 min 773 W/m 9,7 km/h (2 Bft) 100,00 %
31.05.2019 16:24 24,3 C 23,9 C 23,3 C 60 % 1024,7 hPa 0,0 l/m 2 min 0 min 768 W/m 9,7 km/h (2 Bft) 100,00 %
31.05.2019 16:26 24,3 C 23,9 C 23,9 C 59 % 1024,7 hPa 0,0 l/m 2 min 0 min 771 W/m 12,9 km/h (3 Bft) 100,00 %
31.05.2019 16:30 24,3 C 23,3 C 23,3 C 58 % 1024,7 hPa 0,0 l/m 4 min 0 min 773 W/m 29,0 km/h (5 Bft) 100,00 %
31.05.2019 16:32 24,3 C 23,3 C 23,3 C 57 % 1024,6 hPa 0,0 l/m 2 min 0 min 686 W/m 9,7 km/h (2 Bft) 97,57 %
31.05.2019 16:34 24,3 C 23,9 C 23,3 C 57 % 1024,6 hPa 0,0 l/m 2 min 0 min 687 W/m 16,1 km/h (3 Bft) 98,31 %
31.05.2019 16:36 24,4 C 24,4 C 23,3 C 60 % 1024,6 hPa 0,0 l/m 2 min 0 min 685 W/m 6,4 km/h (2 Bft) 98,68 %
31.05.2019 16:38 24,4 C 24,4 C 22,8 C 61 % 1024,6 hPa 0,0 l/m 2 min 0 min 715 W/m 6,4 km/h (2 Bft) 100,00 %
31.05.2019 16:40 24,5 C 23,9 C 22,8 C 59 % 1024,6 hPa 0,0 l/m 2 min 0 min 695 W/m 6,4 km/h (2 Bft) 100,00 %
31.05.2019 16:42 24,6 C 24,4 C 23,3 C 59 % 1024,6 hPa 0,0 l/m 2 min 0 min 689 W/m 6,4 km/h (2 Bft) 97,87 %
31.05.2019 16:44 24,6 C 23,9 C 23,3 C 58 % 1024,7 hPa 0,0 l/m 2 min 0 min 660 W/m 16,1 km/h (3 Bft) 97,87 %
31.05.2019 16:46 24,5 C 23,3 C 23,3 C 57 % 1024,6 hPa 0,0 l/m 2 min 0 min 623 W/m 16,1 km/h (3 Bft) 95,74 %
31.05.2019 16:48 24,4 C 23,3 C 23,3 C 57 % 1024,6 hPa 0,0 l/m 2 min 0 min 654 W/m 19,3 km/h (3 Bft) 100,00 %
31.05.2019 16:50 24,4 C 23,9 C 23,3 C 58 % 1024,5 hPa 0,0 l/m 2 min 0 min 676 W/m 9,7 km/h (2 Bft) 95,65 %
31.05.2019 16:52 24,5 C 23,9 C 23,3 C 59 % 1024,6 hPa 0,0 l/m 2 min 0 min 698 W/m 9,7 km/h (2 Bft) 97,87 %
31.05.2019 16:54 24,5 C 23,9 C 23,3 C 58 % 1024,6 hPa 0,0 l/m 2 min 0 min 706 W/m 9,7 km/h (2 Bft) 97,92 %
31.05.2019 16:56 24,5 C 23,9 C 23,3 C 57 % 1024,5 hPa 0,0 l/m 2 min 0 min 696 W/m 12,9 km/h (3 Bft) 97,87 %
31.05.2019 16:58 24,5 C 23,9 C 23,3 C 58 % 1024,5 hPa 0,0 l/m 2 min 0 min 667 W/m 12,9 km/h (3 Bft) 95,24 %
31.05.2019 17:00 24,5 C 23,9 C 23,3 C 58 % 1024,4 hPa 0,0 l/m 2 min 0 min 714 W/m 16,1 km/h (3 Bft) 97,87 %
31.05.2019 17:02 24,6 C 24,4 C 23,3 C 58 % 1024,4 hPa 0,0 l/m 2 min 0 min 730 W/m 9,7 km/h (2 Bft) 97,83 %
31.05.2019 17:04 24,6 C 23,9 C 23,3 C 58 % 1024,5 hPa 0,0 l/m 2 min 0 min 734 W/m 9,7 km/h (2 Bft) 97,87 %
31.05.2019 17:06 24,6 C 23,9 C 23,3 C 57 % 1024,5 hPa 0,0 l/m 2 min 0 min 758 W/m 16,1 km/h (3 Bft) 97,87 %
31.05.2019 17:08 24,6 C 23,9 C 23,3 C 57 % 1024,4 hPa 0,0 l/m 2 min 0 min 776 W/m 16,1 km/h (3 Bft) 93,62 %
31.05.2019 17:10 24,6 C 24,4 C 23,3 C 59 % 1024,4 hPa 0,0 l/m 2 min 0 min 657 W/m 6,4 km/h (2 Bft) 96,36 %
31.05.2019 17:12 24,6 C 24,4 C 23,9 C 58 % 1024,4 hPa 0,0 l/m 2 min 0 min 367 W/m 9,7 km/h (2 Bft) 97,87 %
31.05.2019 17:14 24,6 C 24,4 C 23,3 C 58 % 1024,4 hPa 0,0 l/m 2 min 0 min 667 W/m 9,7 km/h (2 Bft) 95,83 %
31.05.2019 17:16 24,7 C 24,4 C 23,3 C 58 % 1024,4 hPa 0,0 l/m 2 min 0 min 615 W/m 9,7 km/h (2 Bft) 94,44 %
31.05.2019 17:18 24,7 C 23,9 C 23,3 C 56 % 1024,4 hPa 0,0 l/m 2 min 0 min 581 W/m 9,7 km/h (2 Bft) 95,24 %
31.05.2019 17:20 24,6 C 23,3 C 23,3 C 56 % 1024,3 hPa 0,0 l/m 2 min 0 min 558 W/m 22,5 km/h (4 Bft) 95,92 %
31.05.2019 17:22 24,5 C 23,3 C 22,8 C 57 % 1024,4 hPa 0,0 l/m 2 min 0 min 555 W/m 9,7 km/h (2 Bft) 95,92 %
31.05.2019 17:24 24,4 C 23,3 C 22,8 C 58 % 1024,4 hPa 0,0 l/m 2 min 0 min 555 W/m 12,9 km/h (3 Bft) 93,62 %
31.05.2019 17:26 24,4 C 23,9 C 22,8 C 59 % 1024,4 hPa 0,0 l/m 2 min 0 min 620 W/m 16,1 km/h (3 Bft) 93,62 %
31.05.2019 17:28 24,4 C 23,9 C 23,3 C 59 % 1024,4 hPa 0,0 l/m 2 min 0 min 620 W/m 9,7 km/h (2 Bft) 93,62 %
31.05.2019 17:30 24,4 C 23,9 C 23,3 C 57 % 1024,4 hPa 0,0 l/m 2 min 0 min 626 W/m 9,7 km/h (2 Bft) 93,62 %
31.05.2019 17:32 24,4 C 23,3 C 23,3 C 57 % 1024,4 hPa 0,0 l/m 2 min 0 min 626 W/m 9,7 km/h (2 Bft) 93,02 %
31.05.2019 17:34 24,4 C 23,9 C 23,3 C 58 % 1024,3 hPa 0,0 l/m 2 min 0 min 608 W/m 9,7 km/h (2 Bft) 91,49 %
31.05.2019 17:36 24,4 C 23,3 C 23,3 C 58 % 1024,3 hPa 0,0 l/m 2 min 0 min 620 W/m 16,1 km/h (3 Bft) 93,33 %
31.05.2019 17:38 24,4 C 23,9 C 23,3 C 58 % 1024,4 hPa 0,0 l/m 2 min 0 min 613 W/m 9,7 km/h (2 Bft) 91,89 %
31.05.2019 17:40 24,4 C 23,9 C 22,8 C 58 % 1024,3 hPa 0,0 l/m 2 min 0 min 600 W/m 9,7 km/h (2 Bft) 93,62 %
31.05.2019 17:42 24,4 C 23,9 C 22,8 C 58 % 1024,3 hPa 0,0 l/m 2 min 0 min 559 W/m 16,1 km/h (3 Bft) 93,62 %
31.05.2019 17:44 24,4 C 23,3 C 22,8 C 58 % 1024,3 hPa 0,0 l/m 2 min 0 min 592 W/m 6,4 km/h (2 Bft) 93,62 %
31.05.2019 17:46 24,4 C 23,3 C 22,8 C 58 % 1024,3 hPa 0,0 l/m 2 min 0 min 329 W/m 6,4 km/h (2 Bft) 95,24 %
31.05.2019 17:48 24,4 C 23,3 C 22,8 C 58 % 1024,4 hPa 0,0 l/m 2 min 0 min 571 W/m 9,7 km/h (2 Bft) 95,74 %
31.05.2019 17:50 24,4 C 23,3 C 22,8 C 56 % 1024,4 hPa 0,0 l/m 2 min 0 min 598 W/m 9,7 km/h (2 Bft) 95,83 %
31.05.2019 17:52 24,3 C 23,3 C 22,8 C 58 % 1024,3 hPa 0,0 l/m 2 min 0 min 561 W/m 9,7 km/h (2 Bft) 96,43 %
31.05.2019 17:54 24,3 C 23,3 C 22,8 C 58 % 1024,3 hPa 0,0 l/m 2 min 0 min 561 W/m 12,9 km/h (3 Bft) 95,83 %
31.05.2019 17:56 24,3 C 23,3 C 22,8 C 59 % 1024,3 hPa 0,0 l/m 2 min 0 min 555 W/m 16,1 km/h (3 Bft) 97,87 %
31.05.2019 17:58 24,2 C 23,3 C 22,8 C 58 % 1024,3 hPa 0,0 l/m 2 min 0 min 556 W/m 9,7 km/h (2 Bft) 97,56 %
31.05.2019 18:00 24,2 C 23,3 C 22,8 C 59 % 1024,3 hPa 0,0 l/m 2 min 0 min 499 W/m 16,1 km/h (3 Bft) 97,83 %
31.05.2019 18:02 24,2 C 22,8 C 22,2 C 59 % 1024,3 hPa 0,0 l/m 0 min 0 min 132 W/m 6,4 km/h (2 Bft) 96,00 %
31.05.2019 18:04 24,2 C 23,3 C 22,2 C 60 % 1024,3 hPa 0,0 l/m 2 min 0 min 285 W/m 6,4 km/h (2 Bft) 97,87 %
31.05.2019 18:08 24,2 C 23,3 C 22,2 C 58 % 1024,2 hPa 0,0 l/m 4 min 0 min 507 W/m 12,9 km/h (3 Bft) 97,94 %
31.05.2019 18:10 24,2 C 23,3 C 22,2 C 59 % 1024,2 hPa 0,0 l/m 2 min 0 min 539 W/m 12,9 km/h (3 Bft) 97,83 %
31.05.2019 18:12 24,2 C 23,3 C 22,2 C 58 % 1024,2 hPa 0,0 l/m 2 min 0 min 498 W/m 12,9 km/h (3 Bft) 97,87 %
31.05.2019 18:14 24,1 C 23,3 C 22,8 C 59 % 1024,2 hPa 0,0 l/m 2 min 0 min 487 W/m 9,7 km/h (2 Bft) 97,62 %
31.05.2019 18:16 24,1 C 23,3 C 22,2 C 59 % 1024,2 hPa 0,0 l/m 2 min 0 min 478 W/m 9,7 km/h (2 Bft) 97,96 %
31.05.2019 18:18 24,1 C 23,3 C 22,2 C 59 % 1024,2 hPa 0,0 l/m 2 min 0 min 482 W/m 16,1 km/h (3 Bft) 97,96 %
31.05.2019 18:20 24,1 C 23,3 C 22,2 C 59 % 1024,2 hPa 0,0 l/m 2 min 0 min 470 W/m 6,4 km/h (2 Bft) 97,92 %
31.05.2019 18:22 24,1 C 23,3 C 22,2 C 58 % 1024,2 hPa 0,0 l/m 2 min 0 min 447 W/m 12,9 km/h (3 Bft) 97,83 %
31.05.2019 18:24 24,1 C 23,3 C 22,8 C 59 % 1024,2 hPa 0,0 l/m 2 min 0 min 441 W/m 6,4 km/h (2 Bft) 100,00 %
31.05.2019 18:26 24,1 C 23,3 C 22,8 C 60 % 1024,1 hPa 0,0 l/m 2 min 0 min 444 W/m 9,7 km/h (2 Bft) 100,00 %
31.05.2019 18:28 24,1 C 23,3 C 22,8 C 59 % 1024,2 hPa 0,0 l/m 2 min 0 min 439 W/m 9,7 km/h (2 Bft) 97,96 %
31.05.2019 18:30 24,1 C 23,3 C 22,2 C 59 % 1024,2 hPa 0,0 l/m 2 min 0 min 443 W/m 12,9 km/h (3 Bft) 100,00 %
31.05.2019 18:32 24,0 C 22,8 C 21,7 C 58 % 1024,2 hPa 0,0 l/m 2 min 0 min 442 W/m 19,3 km/h (3 Bft) 97,87 %
31.05.2019 18:34 23,9 C 22,2 C 21,7 C 57 % 1024,2 hPa 0,0 l/m 2 min 0 min 414 W/m 12,9 km/h (3 Bft) 100,00 %
31.05.2019 18:36 23,8 C 22,2 C 21,7 C 58 % 1024,1 hPa 0,0 l/m 2 min 0 min 431 W/m 9,7 km/h (2 Bft) 97,87 %
31.05.2019 18:38 23,8 C 22,2 C 21,7 C 58 % 1024,2 hPa 0,0 l/m 2 min 0 min 426 W/m 6,4 km/h (2 Bft) 100,00 %
31.05.2019 18:40 23,7 C 22,2 C 22,2 C 58 % 1024,1 hPa 0,0 l/m 2 min 0 min 418 W/m 9,7 km/h (2 Bft) 100,00 %
31.05.2019 18:42 23,7 C 22,2 C 22,8 C 59 % 1024,1 hPa 0,0 l/m 2 min 0 min 403 W/m 6,4 km/h (2 Bft) 100,00 %
31.05.2019 18:44 23,6 C 22,8 C 23,3 C 60 % 1024,1 hPa 0,0 l/m 2 min 0 min 401 W/m 6,4 km/h (2 Bft) 100,00 %
31.05.2019 18:46 23,7 C 23,3 C 23,3 C 61 % 1024,2 hPa 0,0 l/m 2 min 0 min 396 W/m 9,7 km/h (2 Bft) 100,00 %
31.05.2019 18:48 23,6 C 23,3 C 22,8 C 61 % 1024,1 hPa 0,0 l/m 2 min 0 min 372 W/m 6,4 km/h (2 Bft) 100,00 %
31.05.2019 18:50 23,6 C 23,3 C 22,2 C 61 % 1024,1 hPa 0,0 l/m 2 min 0 min 377 W/m 6,4 km/h (2 Bft) 100,00 %
31.05.2019 18:52 23,6 C 22,8 C 22,2 C 60 % 1024,1 hPa 0,0 l/m 2 min 0 min 367 W/m 3,2 km/h (1 Bft) 100,00 %
31.05.2019 18:54 23,6 C 22,8 C 22,2 C 60 % 1024,1 hPa 0,0 l/m 2 min 0 min 364 W/m 9,7 km/h (2 Bft) 100,00 %
31.05.2019 18:56 23,6 C 22,8 C 22,2 C 59 % 1024,1 hPa 0,0 l/m 2 min 0 min 363 W/m 16,1 km/h (3 Bft) 97,92 %
31.05.2019 18:58 23,6 C 22,8 C 22,2 C 59 % 1024,1 hPa 0,0 l/m 2 min 0 min 357 W/m 6,4 km/h (2 Bft) 100,00 %
31.05.2019 19:00 23,6 C 22,8 C 22,2 C 60 % 1024,1 hPa 0,0 l/m 2 min 0 min 351 W/m 9,7 km/h (2 Bft) 95,74 %
31.05.2019 19:02 23,5 C 22,8 C 21,7 C 60 % 1024,1 hPa 0,0 l/m 2 min 0 min 339 W/m 12,9 km/h (3 Bft) 100,00 %
31.05.2019 19:04 23,5 C 22,8 C 21,7 C 60 % 1024,1 hPa 0,0 l/m 2 min 0 min 328 W/m 6,4 km/h (2 Bft) 100,00 %
31.05.2019 19:06 23,4 C 22,8 C 21,1 C 60 % 1024,0 hPa 0,0 l/m 2 min 0 min 323 W/m 12,9 km/h (3 Bft) 100,00 %
31.05.2019 19:08 23,4 C 22,8 C 21,1 C 60 % 1024,0 hPa 0,0 l/m 2 min 0 min 312 W/m 12,9 km/h (3 Bft) 100,00 %
31.05.2019 19:10 23,3 C 22,2 C 21,1 C 60 % 1024,0 hPa 0,0 l/m 2 min 0 min 313 W/m 6,4 km/h (2 Bft) 100,00 %
31.05.2019 19:12 23,3 C 22,2 C 20,6 C 60 % 1024,0 hPa 0,0 l/m 2 min 0 min 306 W/m 12,9 km/h (3 Bft) 100,00 %
31.05.2019 19:14 23,2 C 22,2 C 20,6 C 60 % 1024,0 hPa 0,0 l/m 2 min 0 min 287 W/m 3,2 km/h (1 Bft) 97,87 %
31.05.2019 19:16 23,2 C 22,2 C 20,6 C 62 % 1024,0 hPa 0,0 l/m 2 min 0 min 292 W/m 3,2 km/h (1 Bft) 100,00 %
31.05.2019 19:18 23,2 C 22,2 C 20,0 C 61 % 1024,0 hPa 0,0 l/m 2 min 0 min 281 W/m 3,2 km/h (1 Bft) 100,00 %
31.05.2019 19:20 23,2 C 22,2 C 20,0 C 61 % 1024,0 hPa 0,0 l/m 2 min 0 min 277 W/m 6,4 km/h (2 Bft) 100,00 %
31.05.2019 19:22 23,1 C 22,2 C 20,0 C 61 % 1024,0 hPa 0,0 l/m 2 min 0 min 271 W/m 22,5 km/h (4 Bft) 100,00 %
31.05.2019 19:24 23,1 C 21,7 C 20,6 C 61 % 1024,0 hPa 0,0 l/m 2 min 0 min 260 W/m 9,7 km/h (2 Bft) 100,00 %
31.05.2019 19:26 22,9 C 21,7 C 20,6 C 61 % 1023,9 hPa 0,0 l/m 2 min 0 min 248 W/m 6,4 km/h (2 Bft) 100,00 %
31.05.2019 19:28 22,9 C 21,7 C 20,6 C 61 % 1023,9 hPa 0,0 l/m 2 min 0 min 245 W/m 9,7 km/h (2 Bft) 100,00 %
31.05.2019 19:30 22,8 C 21,1 C 20,6 C 61 % 1023,9 hPa 0,0 l/m 2 min 0 min 165 W/m 12,9 km/h (3 Bft) 100,00 %
31.05.2019 19:32 22,7 C 21,1 C 20,0 C 62 % 1023,9 hPa 0,0 l/m 0 min 0 min 70 W/m 9,7 km/h (2 Bft) 100,00 %
31.05.2019 19:34 22,7 C 21,1 C 20,0 C 61 % 1023,9 hPa 0,0 l/m 0 min 0 min 62 W/m 9,7 km/h (2 Bft) 100,00 %
31.05.2019 19:36 22,6 C 21,1 C 19,4 C 62 % 1024,0 hPa 0,0 l/m 0 min 0 min 62 W/m 6,4 km/h (2 Bft) 100,00 %
31.05.2019 19:38 22,5 C 21,1 C 19,4 C 62 % 1023,9 hPa 0,0 l/m 0 min 0 min 67 W/m 6,4 km/h (2 Bft) 97,56 %
31.05.2019 19:40 22,4 C 20,6 C 18,9 C 63 % 1023,9 hPa 0,0 l/m 0 min 0 min 67 W/m 9,7 km/h (2 Bft) 97,73 %
31.05.2019 19:42 22,4 C 20,6 C 19,4 C 62 % 1023,9 hPa 0,0 l/m 0 min 0 min 58 W/m 9,7 km/h (2 Bft) 97,87 %
31.05.2019 19:44 22,3 C 20,6 C 18,9 C 63 % 1023,8 hPa 0,0 l/m 0 min 0 min 56 W/m 12,9 km/h (3 Bft) 97,83 %
31.05.2019 19:46 22,2 C 20,6 C 19,4 C 63 % 1023,8 hPa 0,0 l/m 0 min 0 min 54 W/m 9,7 km/h (2 Bft) 97,62 %
31.05.2019 19:48 22,1 C 20,6 C 18,9 C 63 % 1023,8 hPa 0,0 l/m 0 min 0 min 54 W/m 16,1 km/h (3 Bft) 91,84 %
31.05.2019 19:50 22,0 C 20,6 C 18,9 C 63 % 1023,8 hPa 0,0 l/m 0 min 0 min 53 W/m 9,7 km/h (2 Bft) 97,87 %
31.05.2019 19:52 21,9 C 20,6 C 19,4 C 64 % 1023,9 hPa 0,0 l/m 0 min 0 min 52 W/m 12,9 km/h (3 Bft) 95,92 %
31.05.2019 19:54 21,8 C 20,6 C 19,4 C 63 % 1023,9 hPa 0,0 l/m 0 min 0 min 51 W/m 9,7 km/h (2 Bft) 97,87 %
31.05.2019 19:56 21,8 C 20,6 C 19,4 C 64 % 1023,8 hPa 0,0 l/m 0 min 0 min 50 W/m 6,4 km/h (2 Bft) 97,87 %
31.05.2019 19:58 21,7 C 20,0 C 19,4 C 65 % 1023,8 hPa 0,0 l/m 0 min 0 min 49 W/m 6,4 km/h (2 Bft) 95,74 %
31.05.2019 20:00 21,7 C 20,0 C 19,4 C 65 % 1023,9 hPa 0,0 l/m 0 min 0 min 48 W/m 6,4 km/h (2 Bft) 95,74 %
31.05.2019 20:02 21,6 C 20,0 C 18,9 C 65 % 1023,8 hPa 0,0 l/m 0 min 0 min 47 W/m 6,4 km/h (2 Bft) 89,36 %
31.05.2019 20:04 21,6 C 20,0 C 18,9 C 65 % 1023,8 hPa 0,0 l/m 0 min 0 min 46 W/m 6,4 km/h (2 Bft) 95,74 %
31.05.2019 20:06 21,4 C 20,0 C 19,4 C 64 % 1023,8 hPa 0,0 l/m 0 min 0 min 45 W/m 9,7 km/h (2 Bft) 95,35 %
31.05.2019 20:08 21,4 C 20,0 C 18,9 C 65 % 1023,9 hPa 0,0 l/m 0 min 0 min 44 W/m 6,4 km/h (2 Bft) 95,92 %
31.05.2019 20:10 21,4 C 20,0 C 18,9 C 65 % 1023,9 hPa 0,0 l/m 0 min 0 min 43 W/m 3,2 km/h (1 Bft) 93,75 %
31.05.2019 20:12 21,3 C 20,0 C 18,9 C 66 % 1023,9 hPa 0,0 l/m 0 min 0 min 42 W/m 3,2 km/h (1 Bft) 95,74 %
31.05.2019 20:14 21,3 C 19,4 C 18,3 C 66 % 1023,8 hPa 0,0 l/m 0 min 0 min 41 W/m 6,4 km/h (2 Bft) 95,74 %
31.05.2019 20:16 21,2 C 19,4 C 18,9 C 66 % 1023,8 hPa 0,0 l/m 0 min 0 min 40 W/m 6,4 km/h (2 Bft) 95,24 %
31.05.2019 20:18 21,2 C 19,4 C 18,9 C 66 % 1023,8 hPa 0,0 l/m 0 min 0 min 39 W/m 6,4 km/h (2 Bft) 95,92 %
31.05.2019 20:20 21,1 C 19,4 C 18,9 C 66 % 1023,8 hPa 0,0 l/m 0 min 0 min 38 W/m 6,4 km/h (2 Bft) 93,88 %
31.05.2019 20:22 21,0 C 19,4 C 18,9 C 66 % 1023,8 hPa 0,0 l/m 0 min 0 min 37 W/m 6,4 km/h (2 Bft) 97,87 %
31.05.2019 20:24 20,9 C 19,4 C 18,3 C 66 % 1023,8 hPa 0,0 l/m 0 min 0 min 36 W/m 6,4 km/h (2 Bft) 97,87 %
31.05.2019 20:26 20,9 C 18,9 C 18,3 C 67 % 1023,8 hPa 0,0 l/m 0 min 0 min 34 W/m 6,4 km/h (2 Bft) 95,74 %
31.05.2019 20:28 20,8 C 18,9 C 18,3 C 67 % 1023,8 hPa 0,0 l/m 0 min 0 min 33 W/m 3,2 km/h (1 Bft) 97,87 %
31.05.2019 20:30 20,7 C 18,9 C 18,3 C 67 % 1023,8 hPa 0,0 l/m 0 min 0 min 31 W/m 6,4 km/h (2 Bft) 97,87 %
31.05.2019 20:32 20,7 C 18,9 C 18,3 C 67 % 1023,8 hPa 0,0 l/m 0 min 0 min 29 W/m 6,4 km/h (2 Bft) 97,67 %
31.05.2019 20:34 20,6 C 18,9 C 17,8 C 67 % 1023,8 hPa 0,0 l/m 0 min 0 min 28 W/m 3,2 km/h (1 Bft) 95,65 %
31.05.2019 20:36 20,6 C 18,9 C 17,8 C 68 % 1023,8 hPa 0,0 l/m 0 min 0 min 28 W/m 3,2 km/h (1 Bft) 93,62 %
31.05.2019 20:38 20,5 C 18,9 C 17,2 C 68 % 1023,8 hPa 0,0 l/m 0 min 0 min 27 W/m 3,2 km/h (1 Bft) 93,88 %
31.05.2019 20:40 20,5 C 18,9 C 17,2 C 68 % 1023,8 hPa 0,0 l/m 0 min 0 min 26 W/m 3,2 km/h (1 Bft) 95,74 %
31.05.2019 20:42 20,4 C 18,3 C 17,2 C 68 % 1023,8 hPa 0,0 l/m 0 min 0 min 24 W/m 3,2 km/h (1 Bft) 93,88 %
31.05.2019 20:44 20,4 C 18,3 C 17,2 C 68 % 1023,8 hPa 0,0 l/m 0 min 0 min 23 W/m 3,2 km/h (1 Bft) 95,65 %
31.05.2019 20:46 20,3 C 18,3 C 17,2 C 68 % 1023,7 hPa 0,0 l/m 0 min 0 min 22 W/m 3,2 km/h (1 Bft) 97,62 %
31.05.2019 20:48 20,3 C 18,3 C 17,2 C 68 % 1023,7 hPa 0,0 l/m 0 min 0 min 19 W/m 3,2 km/h (1 Bft) 97,87 %
31.05.2019 20:50 20,3 C 18,3 C 17,2 C 68 % 1023,7 hPa 0,0 l/m 0 min 0 min 18 W/m 3,2 km/h (1 Bft) 97,96 %
31.05.2019 20:52 20,2 C 18,3 C 17,2 C 69 % 1023,6 hPa 0,0 l/m 0 min 0 min 16 W/m 3,2 km/h (1 Bft) 95,92 %
31.05.2019 20:54 20,2 C 18,3 C 17,2 C 69 % 1023,6 hPa 0,0 l/m 0 min 0 min 14 W/m 3,2 km/h (1 Bft) 93,62 %
31.05.2019 20:56 20,1 C 18,3 C 16,7 C 69 % 1023,6 hPa 0,0 l/m 0 min 0 min 12 W/m 3,2 km/h (1 Bft) 97,87 %
31.05.2019 20:58 20,1 C 17,8 C 16,7 C 69 % 1023,6 hPa 0,0 l/m 0 min 0 min 12 W/m 3,2 km/h (1 Bft) 100,00 %
31.05.2019 21:00 20,0 C 17,8 C 16,7 C 69 % 1023,6 hPa 0,0 l/m 0 min 0 min 12 W/m 3,2 km/h (1 Bft) 97,87 %
31.05.2019 21:02 19,9 C 17,8 C 16,7 C 69 % 1023,7 hPa 0,0 l/m 0 min 0 min 12 W/m 0,0 km/h (0 Bft) 97,87 %
31.05.2019 21:04 19,9 C 17,8 C 16,7 C 69 % 1023,7 hPa 0,0 l/m 0 min 0 min 11 W/m 3,2 km/h (1 Bft) 97,87 %
31.05.2019 21:06 19,8 C 17,8 C 16,7 C 69 % 1023,7 hPa 0,0 l/m 0 min 0 min 11 W/m 3,2 km/h (1 Bft) 97,87 %
31.05.2019 21:08 19,8 C 17,8 C 16,7 C 69 % 1023,7 hPa 0,0 l/m 0 min 0 min 11 W/m 6,4 km/h (2 Bft) 97,87 %
31.05.2019 21:10 19,7 C 17,8 C 16,7 C 69 % 1023,7 hPa 0,0 l/m 0 min 0 min 9 W/m 3,2 km/h (1 Bft) 98,18 %
31.05.2019 21:12 19,7 C 17,8 C 16,7 C 69 % 1023,6 hPa 0,0 l/m 0 min 0 min 9 W/m 3,2 km/h (1 Bft) 97,87 %
31.05.2019 21:14 19,7 C 17,2 C 16,7 C 70 % 1023,7 hPa 0,0 l/m 0 min 0 min 7 W/m 0,0 km/h (0 Bft) 97,87 %
31.05.2019 21:16 19,6 C 17,2 C 16,1 C 70 % 1023,6 hPa 0,0 l/m 0 min 0 min 7 W/m 0,0 km/h (0 Bft) 97,62 %
31.05.2019 21:18 19,6 C 17,2 C 16,1 C 70 % 1023,7 hPa 0,0 l/m 0 min 0 min 7 W/m 0,0 km/h (0 Bft) 95,74 %
31.05.2019 21:20 19,5 C 17,2 C 16,1 C 70 % 1023,7 hPa 0,0 l/m 0 min 0 min 8 W/m 0,0 km/h (0 Bft) 95,83 %
31.05.2019 21:22 19,5 C 17,2 C 15,6 C 70 % 1023,7 hPa 0,0 l/m 0 min 0 min 7 W/m 0,0 km/h (0 Bft) 97,87 %
31.05.2019 21:24 19,4 C 16,7 C 15,6 C 70 % 1023,7 hPa 0,0 l/m 0 min 0 min 7 W/m 0,0 km/h (0 Bft) 97,87 %
31.05.2019 21:26 19,4 C 16,7 C 15,6 C 70 % 1023,7 hPa 0,0 l/m 0 min 0 min 6 W/m 0,0 km/h (0 Bft) 97,96 %
31.05.2019 21:28 19,3 C 16,7 C 15,6 C 70 % 1023,7 hPa 0,0 l/m 0 min 0 min 5 W/m 0,0 km/h (0 Bft) 97,87 %
31.05.2019 21:30 19,3 C 16,7 C 15,0 C 70 % 1023,7 hPa 0,0 l/m 0 min 0 min 5 W/m 0,0 km/h (0 Bft) 97,87 %
31.05.2019 21:32 19,2 C 16,7 C 15,0 C 71 % 1023,6 hPa 0,0 l/m 0 min 0 min 4 W/m 0,0 km/h (0 Bft) 97,87 %
31.05.2019 21:34 19,2 C 16,1 C 15,0 C 71 % 1023,7 hPa 0,0 l/m 0 min 0 min 0 W/m 0,0 km/h (0 Bft) 97,87 %
31.05.2019 21:36 19,1 C 16,1 C 15,0 C 71 % 1023,7 hPa 0,0 l/m 0 min 0 min 0 W/m 0,0 km/h (0 Bft) 95,74 %
31.05.2019 21:38 19,1 C 16,1 C 15,0 C 71 % 1023,7 hPa 0,0 l/m 0 min 0 min 0 W/m 3,2 km/h (1 Bft) 97,87 %
31.05.2019 21:40 19,0 C 16,1 C 15,0 C 71 % 1023,7 hPa 0,0 l/m 0 min 0 min 0 W/m 0,0 km/h (0 Bft) 100,00 %
31.05.2019 21:42 18,9 C 16,1 C 15,0 C 71 % 1023,8 hPa 0,0 l/m 0 min 0 min 0 W/m 0,0 km/h (0 Bft) 97,83 %
31.05.2019 21:44 18,9 C 16,1 C 14,4 C 72 % 1023,8 hPa 0,0 l/m 0 min 0 min 0 W/m 0,0 km/h (0 Bft) 100,00 %
31.05.2019 21:46 18,8 C 16,1 C 14,4 C 72 % 1023,8 hPa 0,0 l/m 0 min 0 min 0 W/m 0,0 km/h (0 Bft) 100,00 %
31.05.2019 21:48 18,7 C 15,6 C 14,4 C 72 % 1023,8 hPa 0,0 l/m 0 min 0 min 0 W/m 0,0 km/h (0 Bft) 100,00 %
31.05.2019 21:50 18,7 C 15,6 C 14,4 C 72 % 1023,8 hPa 0,0 l/m 0 min 0 min 0 W/m 0,0 km/h (0 Bft) 100,00 %
31.05.2019 21:52 18,6 C 15,6 C 14,4 C 72 % 1023,8 hPa 0,0 l/m 0 min 0 min 0 W/m 0,0 km/h (0 Bft) 93,48 %
31.05.2019 21:54 18,6 C 15,6 C 14,4 C 72 % 1023,8 hPa 0,0 l/m 0 min 0 min 0 W/m 0,0 km/h (0 Bft) 100,00 %
31.05.2019 21:56 18,5 C 15,6 C 14,4 C 72 % 1023,8 hPa 0,0 l/m 0 min 0 min 0 W/m 0,0 km/h (0 Bft) 100,00 %
31.05.2019 21:58 18,4 C 15,6 C 14,4 C 73 % 1023,8 hPa 0,0 l/m 0 min 0 min 0 W/m 0,0 km/h (0 Bft) 100,00 %
31.05.2019 22:00 18,3 C 15,6 C 13,9 C 73 % 1023,8 hPa 0,0 l/m 0 min 0 min 0 W/m 0,0 km/h (0 Bft) 100,00 %
31.05.2019 22:02 18,3 C 15,0 C 13,9 C 73 % 1023,9 hPa 0,0 l/m 0 min 0 min 0 W/m 0,0 km/h (0 Bft) 97,87 %
31.05.2019 22:04 18,2 C 15,0 C 13,9 C 73 % 1023,9 hPa 0,0 l/m 0 min 0 min 0 W/m 0,0 km/h (0 Bft) 100,00 %
31.05.2019 22:06 18,1 C 15,0 C 13,9 C 73 % 1023,9 hPa 0,0 l/m 0 min 0 min 0 W/m 0,0 km/h (0 Bft) 100,00 %
31.05.2019 22:08 18,1 C 15,0 C 13,9 C 73 % 1023,9 hPa 0,0 l/m 0 min 0 min 0 W/m 0,0 km/h (0 Bft) 100,00 %
31.05.2019 22:10 18,0 C 15,0 C 13,9 C 74 % 1023,9 hPa 0,0 l/m 0 min 0 min 0 W/m 0,0 km/h (0 Bft) 100,00 %
31.05.2019 22:12 17,9 C 15,0 C 13,9 C 74 % 1023,9 hPa 0,0 l/m 0 min 0 min 0 W/m 0,0 km/h (0 Bft) 100,00 %
31.05.2019 22:14 17,9 C 15,0 C 13,9 C 75 % 1023,9 hPa 0,0 l/m 0 min 0 min 0 W/m 0,0 km/h (0 Bft) 97,87 %
31.05.2019 22:16 17,8 C 14,4 C 13,9 C 75 % 1023,9 hPa 0,0 l/m 0 min 0 min 0 W/m 0,0 km/h (0 Bft) 97,83 %
31.05.2019 22:18 17,7 C 14,4 C 13,9 C 75 % 1023,9 hPa 0,0 l/m 0 min 0 min 0 W/m 0,0 km/h (0 Bft) 97,87 %
31.05.2019 22:20 17,7 C 14,4 C 13,9 C 75 % 1024,0 hPa 0,0 l/m 0 min 0 min 0 W/m 0,0 km/h (0 Bft) 97,87 %
31.05.2019 22:22 17,6 C 14,4 C 13,3 C 76 % 1023,9 hPa 0,0 l/m 0 min 0 min 0 W/m 0,0 km/h (0 Bft) 100,00 %
31.05.2019 22:24 17,5 C 14,4 C 13,3 C 76 % 1023,9 hPa 0,0 l/m 0 min 0 min 0 W/m 0,0 km/h (0 Bft) 97,87 %
31.05.2019 22:26 17,4 C 14,4 C 13,3 C 76 % 1023,9 hPa 0,0 l/m 0 min 0 min 0 W/m 0,0 km/h (0 Bft) 97,87 %
31.05.2019 22:28 17,4 C 14,4 C 13,3 C 77 % 1023,9 hPa 0,0 l/m 0 min 0 min 0 W/m 0,0 km/h (0 Bft) 97,83 %
31.05.2019 22:30 17,3 C 14,4 C 13,3 C 77 % 1023,9 hPa 0,0 l/m 0 min 0 min 0 W/m 0,0 km/h (0 Bft) 97,87 %
31.05.2019 22:32 17,2 C 14,4 C 13,3 C 77 % 1023,8 hPa 0,0 l/m 0 min 0 min 0 W/m 0,0 km/h (0 Bft) 95,74 %
31.05.2019 22:34 17,1 C 14,4 C 13,3 C 78 % 1023,9 hPa 0,0 l/m 0 min 0 min 0 W/m 0,0 km/h (0 Bft) 97,87 %
31.05.2019 22:36 17,1 C 14,4 C 13,3 C 78 % 1023,9 hPa 0,0 l/m 0 min 0 min 0 W/m 0,0 km/h (0 Bft) 93,62 %
31.05.2019 22:38 17,0 C 13,9 C 13,3 C 78 % 1023,9 hPa 0,0 l/m 0 min 0 min 0 W/m 0,0 km/h (0 Bft) 95,74 %
31.05.2019 22:40 16,9 C 14,4 C 13,3 C 78 % 1023,9 hPa 0,0 l/m 0 min 0 min 0 W/m 0,0 km/h (0 Bft) 95,65 %
31.05.2019 22:42 16,9 C 14,4 C 13,3 C 78 % 1023,9 hPa 0,0 l/m 0 min 0 min 0 W/m 0,0 km/h (0 Bft) 95,74 %
31.05.2019 22:44 16,8 C 13,9 C 13,3 C 78 % 1023,9 hPa 0,0 l/m 0 min 0 min 0 W/m 0,0 km/h (0 Bft) 95,74 %
31.05.2019 22:46 16,8 C 13,9 C 13,3 C 79 % 1023,9 hPa 0,0 l/m 0 min 0 min 0 W/m 0,0 km/h (0 Bft) 95,74 %
31.05.2019 22:48 16,7 C 13,9 C 13,3 C 79 % 1023,9 hPa 0,0 l/m 0 min 0 min 0 W/m 0,0 km/h (0 Bft) 95,74 %
31.05.2019 22:50 16,7 C 13,9 C 13,3 C 79 % 1023,9 hPa 0,0 l/m 0 min 0 min 0 W/m 0,0 km/h (0 Bft) 95,74 %
31.05.2019 22:52 16,6 C 13,9 C 12,8 C 79 % 1023,9 hPa 0,0 l/m 0 min 0 min 0 W/m 0,0 km/h (0 Bft) 95,65 %
31.05.2019 22:54 16,6 C 13,9 C 12,8 C 79 % 1023,9 hPa 0,0 l/m 0 min 0 min 0 W/m 0,0 km/h (0 Bft) 91,49 %
31.05.2019 22:56 16,5 C 13,9 C 12,8 C 80 % 1023,9 hPa 0,0 l/m 0 min 0 min 0 W/m 0,0 km/h (0 Bft) 95,74 %
31.05.2019 22:58 16,4 C 13,9 C 12,8 C 80 % 1023,8 hPa 0,0 l/m 0 min 0 min 0 W/m 0,0 km/h (0 Bft) 93,62 %
31.05.2019 23:00 16,4 C 13,3 C 12,8 C 80 % 1023,9 hPa 0,0 l/m 0 min 0 min 0 W/m 0,0 km/h (0 Bft) 95,74 %
31.05.2019 23:02 16,3 C 13,3 C 12,8 C 80 % 1023,9 hPa 0,0 l/m 0 min 0 min 0 W/m 0,0 km/h (0 Bft) 95,74 %
31.05.2019 23:04 16,3 C 13,3 C 12,8 C 80 % 1023,9 hPa 0,0 l/m 0 min 0 min 0 W/m 0,0 km/h (0 Bft) 97,83 %
31.05.2019 23:06 16,2 C 13,3 C 12,8 C 80 % 1024,0 hPa 0,0 l/m 0 min 0 min 0 W/m 0,0 km/h (0 Bft) 95,74 %
31.05.2019 23:08 16,2 C 13,9 C 12,8 C 81 % 1023,9 hPa 0,0 l/m 0 min 0 min 0 W/m 0,0 km/h (0 Bft) 95,74 %
31.05.2019 23:10 16,2 C 13,9 C 12,8 C 81 % 1023,9 hPa 0,0 l/m 0 min 0 min 0 W/m 0,0 km/h (0 Bft) 95,35 %
31.05.2019 23:12 16,1 C 13,9 C 12,8 C 81 % 1024,0 hPa 0,0 l/m 0 min 0 min 0 W/m 0,0 km/h (0 Bft) 97,87 %
31.05.2019 23:14 16,1 C 13,3 C 12,8 C 81 % 1023,9 hPa 0,0 l/m 0 min 0 min 0 W/m 0,0 km/h (0 Bft) 95,74 %
31.05.2019 23:16 16,0 C 13,9 C 12,8 C 81 % 1023,9 hPa 0,0 l/m 0 min 0 min 0 W/m 0,0 km/h (0 Bft) 97,83 %
31.05.2019 23:18 16,0 C 13,3 C 12,8 C 81 % 1023,8 hPa 0,0 l/m 0 min 0 min 0 W/m 0,0 km/h (0 Bft) 95,74 %
31.05.2019 23:20 15,9 C 13,3 C 12,8 C 81 % 1023,9 hPa 0,0 l/m 0 min 0 min 0 W/m 0,0 km/h (0 Bft) 97,87 %
31.05.2019 23:22 15,9 C 13,3 C 12,8 C 81 % 1023,8 hPa 0,0 l/m 0 min 0 min 0 W/m 0,0 km/h (0 Bft) 97,87 %
31.05.2019 23:24 15,8 C 13,3 C 12,8 C 81 % 1023,8 hPa 0,0 l/m 0 min 0 min 0 W/m 0,0 km/h (0 Bft) 97,87 %
31.05.2019 23:26 15,8 C 13,3 C 12,8 C 82 % 1023,8 hPa 0,0 l/m 0 min 0 min 0 W/m 0,0 km/h (0 Bft) 97,87 %
31.05.2019 23:28 15,7 C 13,3 C 12,8 C 82 % 1023,8 hPa 0,0 l/m 0 min 0 min 0 W/m 0,0 km/h (0 Bft) 97,83 %
31.05.2019 23:30 15,7 C 13,3 C 12,8 C 82 % 1023,8 hPa 0,0 l/m 0 min 0 min 0 W/m 0,0 km/h (0 Bft) 95,74 %
31.05.2019 23:32 15,7 C 13,3 C 12,8 C 82 % 1023,8 hPa 0,0 l/m 0 min 0 min 0 W/m 0,0 km/h (0 Bft) 100,00 %
31.05.2019 23:34 15,6 C 13,3 C 12,8 C 82 % 1023,8 hPa 0,0 l/m 0 min 0 min 0 W/m 0,0 km/h (0 Bft) 97,87 %
31.05.2019 23:36 15,6 C 13,3 C 12,2 C 82 % 1023,8 hPa 0,0 l/m 0 min 0 min 0 W/m 0,0 km/h (0 Bft) 98,28 %
31.05.2019 23:38 15,6 C 13,3 C 12,2 C 83 % 1023,8 hPa 0,0 l/m 0 min 0 min 0 W/m 0,0 km/h (0 Bft) 100,00 %
31.05.2019 23:40 15,5 C 13,3 C 12,2 C 83 % 1023,8 hPa 0,0 l/m 0 min 0 min 0 W/m 0,0 km/h (0 Bft) 100,00 %
31.05.2019 23:42 15,4 C 12,8 C 12,2 C 83 % 1023,8 hPa 0,0 l/m 0 min 0 min 0 W/m 0,0 km/h (0 Bft) 100,00 %
31.05.2019 23:44 15,4 C 12,8 C 12,2 C 83 % 1023,8 hPa 0,0 l/m 0 min 0 min 0 W/m 0,0 km/h (0 Bft) 97,87 %
31.05.2019 23:46 15,4 C 12,8 C 12,2 C 83 % 1023,8 hPa 0,0 l/m 0 min 0 min 0 W/m 0,0 km/h (0 Bft) 97,87 %
31.05.2019 23:48 15,3 C 12,8 C 12,2 C 83 % 1023,8 hPa 0,0 l/m 0 min 0 min 0 W/m 0,0 km/h (0 Bft) 100,00 %
31.05.2019 23:50 15,3 C 12,8 C 12,2 C 83 % 1023,7 hPa 0,0 l/m 0 min 0 min 0 W/m 0,0 km/h (0 Bft) 100,00 %
31.05.2019 23:52 15,3 C 12,8 C 12,2 C 83 % 1023,7 hPa 0,0 l/m 0 min 0 min 0 W/m 0,0 km/h (0 Bft) 97,87 %
31.05.2019 23:54 15,2 C 12,8 C 12,2 C 84 % 1023,7 hPa 0,0 l/m 0 min 0 min 0 W/m 0,0 km/h (0 Bft) 97,87 %
31.05.2019 23:56 15,2 C 12,8 C 12,2 C 84 % 1023,7 hPa 0,0 l/m 0 min 0 min 0 W/m 0,0 km/h (0 Bft) 100,00 %
31.05.2019 23:58 15,1 C 12,8 C 12,2 C 84 % 1023,7 hPa 0,0 l/m 0 min 0 min 0 W/m 0,0 km/h (0 Bft) 100,00 %
_ Min-Zeit 23:58 23:42 23:36 17:18 20:52 - - - - 21:02 08:42
Minimum _ 15,1 C 12,8 C 12,2 C 56 % 1023,6 hPa - - - - 0,0 km/h (0 Bft) 89,36 %
_ Max-Zeit 17:16 12:14 11:58 23:54 09:18 00:00 12:08 00:00 12:42 14:14 00:20
Maximum _ 24,7 C 31,1 C 31,7 C 84 % 1025,5 hPa 0,0 l/m 4 min 0 min 1182 W/m 29,0 km/h
S-SO (5 Bft)
100,00 %
Durchschnitt _ 19,9 C 20,4 C 19,9 C 71 % 1024,4 hPa #0,0 l/m #8:42 h #0 min. 440 W/m 9,9 km/h (2 Bft) 97,75 %
© 2019 W. Hausmann